Wetterdaten: Sonntag, 05.05.2013
Datum Zeit Temp. Aussen +5cm Feuchte Auss Luftdruck Regen Sonnenschein Regendauer UV Solar Windben
05.05.2013 00:00 11,4 C 9,0 C 74 % 1021,1 hPa 0,0 l/m 0 min 0 min 0,0 UV-I 0 W/m 0,0 km/h (0 Bft)
05.05.2013 00:02 11,3 C 9,0 C 74 % 1021,0 hPa 0,0 l/m 0 min 0 min 0,0 UV-I 0 W/m 0,0 km/h (0 Bft)
05.05.2013 00:06 11,2 C 9,0 C 75 % 1021,1 hPa 0,0 l/m 0 min 0 min 0,0 UV-I 0 W/m 0,0 km/h (0 Bft)
05.05.2013 00:08 11,2 C 9,0 C 75 % 1021,1 hPa 0,0 l/m 0 min 0 min 0,0 UV-I 0 W/m 0,0 km/h (0 Bft)
05.05.2013 00:10 11,2 C 9,0 C 75 % 1021,2 hPa 0,0 l/m 0 min 0 min 0,0 UV-I 0 W/m 0,0 km/h (0 Bft)
05.05.2013 00:12 11,1 C 9,0 C 75 % 1021,1 hPa 0,0 l/m 0 min 0 min 0,0 UV-I 0 W/m 0,0 km/h (0 Bft)
05.05.2013 00:14 11,1 C 9,0 C 76 % 1021,2 hPa 0,0 l/m 0 min 0 min 0,0 UV-I 0 W/m 7,7 km/h (2 Bft)
05.05.2013 00:16 11,0 C 9,0 C 76 % 1021,1 hPa 0,0 l/m 0 min 0 min 0,0 UV-I 0 W/m 0,0 km/h (0 Bft)
05.05.2013 00:18 11,0 C 9,0 C 76 % 1021,1 hPa 0,0 l/m 0 min 0 min 0,0 UV-I 0 W/m 0,0 km/h (0 Bft)
05.05.2013 00:20 10,9 C 9,0 C 76 % 1021,0 hPa 0,0 l/m 0 min 0 min 0,0 UV-I 0 W/m 0,0 km/h (0 Bft)
05.05.2013 00:22 10,9 C 9,0 C 76 % 1021,0 hPa 0,0 l/m 0 min 0 min 0,0 UV-I 0 W/m 2,6 km/h (1 Bft)
05.05.2013 00:24 10,8 C 9,0 C 76 % 1021,1 hPa 0,0 l/m 0 min 0 min 0,0 UV-I 0 W/m 5,1 km/h (1 Bft)
05.05.2013 00:26 10,8 C 9,0 C 77 % 1021,1 hPa 0,0 l/m 0 min 0 min 0,0 UV-I 0 W/m 5,1 km/h (1 Bft)
05.05.2013 00:28 10,8 C 9,0 C 77 % 1021,2 hPa 0,0 l/m 0 min 0 min 0,0 UV-I 0 W/m 2,6 km/h (1 Bft)
05.05.2013 00:30 10,7 C 9,0 C 77 % 1021,2 hPa 0,0 l/m 0 min 0 min 0,0 UV-I 0 W/m 10,3 km/h (2 Bft)
05.05.2013 00:32 10,7 C 9,0 C 77 % 1021,3 hPa 0,0 l/m 0 min 0 min 0,0 UV-I 0 W/m 5,1 km/h (1 Bft)
05.05.2013 00:34 10,7 C 9,6 C 77 % 1021,3 hPa 0,0 l/m 0 min 0 min 0,0 UV-I 0 W/m 7,7 km/h (2 Bft)
05.05.2013 00:36 10,7 C 9,6 C 77 % 1021,3 hPa 0,0 l/m 0 min 0 min 0,0 UV-I 0 W/m 2,6 km/h (1 Bft)
05.05.2013 00:38 10,6 C 9,0 C 77 % 1021,3 hPa 0,0 l/m 0 min 0 min 0,0 UV-I 0 W/m 7,7 km/h (2 Bft)
05.05.2013 00:40 10,6 C 9,0 C 78 % 1021,2 hPa 0,0 l/m 0 min 0 min 0,0 UV-I 0 W/m 2,6 km/h (1 Bft)
05.05.2013 00:42 10,6 C 9,0 C 78 % 1021,3 hPa 0,0 l/m 0 min 0 min 0,0 UV-I 0 W/m 0,0 km/h (0 Bft)
05.05.2013 00:44 10,6 C 9,0 C 78 % 1021,2 hPa 0,0 l/m 0 min 0 min 0,0 UV-I 0 W/m 0,0 km/h (0 Bft)
05.05.2013 00:46 10,6 C 9,0 C 78 % 1021,3 hPa 0,0 l/m 0 min 0 min 0,0 UV-I 0 W/m 0,0 km/h (0 Bft)
05.05.2013 00:48 10,6 C 9,0 C 78 % 1021,3 hPa 0,0 l/m 0 min 0 min 0,0 UV-I 0 W/m 2,6 km/h (1 Bft)
05.05.2013 00:50 10,5 C 9,0 C 78 % 1021,3 hPa 0,0 l/m 0 min 0 min 0,0 UV-I 0 W/m 0,0 km/h (0 Bft)
05.05.2013 00:52 10,5 C 9,0 C 78 % 1021,3 hPa 0,0 l/m 0 min 0 min 0,0 UV-I 0 W/m 0,0 km/h (0 Bft)
05.05.2013 00:54 10,5 C 9,0 C 78 % 1021,3 hPa 0,0 l/m 0 min 0 min 0,0 UV-I 0 W/m 0,0 km/h (0 Bft)
05.05.2013 00:56 10,4 C 9,0 C 78 % 1021,3 hPa 0,0 l/m 0 min 0 min 0,0 UV-I 0 W/m 0,0 km/h (0 Bft)
05.05.2013 00:58 10,4 C 9,0 C 78 % 1021,4 hPa 0,0 l/m 0 min 0 min 0,0 UV-I 0 W/m 2,6 km/h (1 Bft)
05.05.2013 01:00 10,4 C 9,0 C 78 % 1021,4 hPa 0,0 l/m 0 min 0 min 0,0 UV-I 0 W/m 0,0 km/h (0 Bft)
05.05.2013 01:02 10,4 C 9,0 C 78 % 1021,4 hPa 0,0 l/m 0 min 0 min 0,0 UV-I 0 W/m 0,0 km/h (0 Bft)
05.05.2013 01:04 10,4 C 9,0 C 78 % 1021,5 hPa 0,0 l/m 0 min 0 min 0,0 UV-I 0 W/m 0,0 km/h (0 Bft)
05.05.2013 01:06 10,3 C 9,0 C 78 % 1021,5 hPa 0,0 l/m 0 min 0 min 0,0 UV-I 0 W/m 0,0 km/h (0 Bft)
05.05.2013 01:08 10,3 C 9,0 C 78 % 1021,4 hPa 0,0 l/m 0 min 0 min 0,0 UV-I 0 W/m 2,6 km/h (1 Bft)
05.05.2013 01:10 10,3 C 9,0 C 79 % 1021,4 hPa 0,0 l/m 0 min 0 min 0,0 UV-I 0 W/m 0,0 km/h (0 Bft)
05.05.2013 01:12 10,3 C 9,0 C 79 % 1021,4 hPa 0,0 l/m 0 min 0 min 0,0 UV-I 0 W/m 0,0 km/h (0 Bft)
05.05.2013 01:14 10,3 C 9,0 C 79 % 1021,5 hPa 0,0 l/m 0 min 0 min 0,0 UV-I 0 W/m 0,0 km/h (0 Bft)
05.05.2013 01:16 10,3 C 9,0 C 79 % 1021,4 hPa 0,0 l/m 0 min 0 min 0,0 UV-I 0 W/m 0,0 km/h (0 Bft)
05.05.2013 01:18 10,3 C 9,0 C 79 % 1021,4 hPa 0,0 l/m 0 min 0 min 0,0 UV-I 0 W/m 0,0 km/h (0 Bft)
05.05.2013 01:20 10,3 C 8,4 C 79 % 1021,4 hPa 0,0 l/m 0 min 0 min 0,0 UV-I 0 W/m 0,0 km/h (0 Bft)
05.05.2013 01:22 10,2 C 9,0 C 79 % 1021,4 hPa 0,0 l/m 0 min 0 min 0,0 UV-I 0 W/m 0,0 km/h (0 Bft)
05.05.2013 01:24 10,2 C 8,4 C 79 % 1021,4 hPa 0,0 l/m 0 min 0 min 0,0 UV-I 0 W/m 0,0 km/h (0 Bft)
05.05.2013 01:26 10,2 C 8,4 C 79 % 1021,4 hPa 0,0 l/m 0 min 0 min 0,0 UV-I 0 W/m 2,6 km/h (1 Bft)
05.05.2013 01:28 10,2 C 8,4 C 79 % 1021,5 hPa 0,0 l/m 0 min 0 min 0,0 UV-I 0 W/m 0,0 km/h (0 Bft)
05.05.2013 01:30 10,2 C 8,4 C 79 % 1021,5 hPa 0,0 l/m 0 min 0 min 0,0 UV-I 0 W/m 0,0 km/h (0 Bft)
05.05.2013 01:32 10,2 C 8,4 C 79 % 1021,5 hPa 0,0 l/m 0 min 0 min 0,0 UV-I 0 W/m 0,0 km/h (0 Bft)
05.05.2013 01:34 10,2 C 8,4 C 79 % 1021,4 hPa 0,0 l/m 0 min 0 min 0,0 UV-I 0 W/m 0,0 km/h (0 Bft)
05.05.2013 01:36 10,1 C 8,4 C 79 % 1021,4 hPa 0,0 l/m 0 min 0 min 0,0 UV-I 0 W/m 0,0 km/h (0 Bft)
05.05.2013 01:38 10,1 C 8,4 C 79 % 1021,4 hPa 0,0 l/m 0 min 0 min 0,0 UV-I 0 W/m 0,0 km/h (0 Bft)
05.05.2013 01:40 10,1 C 8,4 C 79 % 1021,4 hPa 0,0 l/m 0 min 0 min 0,0 UV-I 0 W/m 0,0 km/h (0 Bft)
05.05.2013 01:42 10,1 C 8,4 C 80 % 1021,4 hPa 0,0 l/m 0 min 0 min 0,0 UV-I 0 W/m 0,0 km/h (0 Bft)
05.05.2013 01:44 10,1 C 8,4 C 80 % 1021,5 hPa 0,0 l/m 0 min 0 min 0,0 UV-I 0 W/m 0,0 km/h (0 Bft)
05.05.2013 01:46 10,0 C 8,4 C 80 % 1021,5 hPa 0,0 l/m 0 min 0 min 0,0 UV-I 0 W/m 0,0 km/h (0 Bft)
05.05.2013 01:48 10,0 C 8,4 C 80 % 1021,5 hPa 0,0 l/m 0 min 0 min 0,0 UV-I 0 W/m 0,0 km/h (0 Bft)
05.05.2013 01:50 9,9 C 8,4 C 80 % 1021,4 hPa 0,0 l/m 0 min 0 min 0,0 UV-I 0 W/m 5,1 km/h (1 Bft)
05.05.2013 01:52 9,9 C 8,4 C 80 % 1021,4 hPa 0,0 l/m 0 min 0 min 0,0 UV-I 0 W/m 0,0 km/h (0 Bft)
05.05.2013 01:54 9,9 C 7,9 C 80 % 1021,4 hPa 0,0 l/m 0 min 0 min 0,0 UV-I 0 W/m 0,0 km/h (0 Bft)
05.05.2013 01:56 9,9 C 7,9 C 80 % 1021,4 hPa 0,0 l/m 0 min 0 min 0,0 UV-I 0 W/m 0,0 km/h (0 Bft)
05.05.2013 01:58 9,9 C 7,9 C 80 % 1021,4 hPa 0,0 l/m 0 min 0 min 0,0 UV-I 0 W/m 0,0 km/h (0 Bft)
05.05.2013 02:00 9,8 C 7,9 C 80 % 1021,5 hPa 0,0 l/m 0 min 0 min 0,0 UV-I 0 W/m 0,0 km/h (0 Bft)
05.05.2013 02:02 9,8 C 7,9 C 80 % 1021,5 hPa 0,0 l/m 0 min 0 min 0,0 UV-I 0 W/m 0,0 km/h (0 Bft)
05.05.2013 02:04 9,8 C 7,9 C 80 % 1021,4 hPa 0,0 l/m 0 min 0 min 0,0 UV-I 0 W/m 0,0 km/h (0 Bft)
05.05.2013 02:06 9,8 C 7,9 C 80 % 1021,4 hPa 0,0 l/m 0 min 0 min 0,0 UV-I 0 W/m 0,0 km/h (0 Bft)
05.05.2013 02:08 9,8 C 7,9 C 80 % 1021,4 hPa 0,0 l/m 0 min 0 min 0,0 UV-I 0 W/m 0,0 km/h (0 Bft)
05.05.2013 02:10 9,7 C 7,9 C 80 % 1021,5 hPa 0,0 l/m 0 min 0 min 0,0 UV-I 0 W/m 0,0 km/h (0 Bft)
05.05.2013 02:12 9,7 C 7,9 C 80 % 1021,4 hPa 0,0 l/m 0 min 0 min 0,0 UV-I 0 W/m 0,0 km/h (0 Bft)
05.05.2013 02:14 9,7 C 7,9 C 81 % 1021,4 hPa 0,0 l/m 0 min 0 min 0,0 UV-I 0 W/m 0,0 km/h (0 Bft)
05.05.2013 02:16 9,7 C 7,9 C 81 % 1021,4 hPa 0,0 l/m 0 min 0 min 0,0 UV-I 0 W/m 0,0 km/h (0 Bft)
05.05.2013 02:18 9,7 C 7,9 C 80 % 1021,5 hPa 0,0 l/m 0 min 0 min 0,0 UV-I 0 W/m 0,0 km/h (0 Bft)
05.05.2013 02:20 9,7 C 7,9 C 81 % 1021,5 hPa 0,0 l/m 0 min 0 min 0,0 UV-I 0 W/m 0,0 km/h (0 Bft)
05.05.2013 02:22 9,6 C 7,9 C 81 % 1021,4 hPa 0,0 l/m 0 min 0 min 0,0 UV-I 0 W/m 0,0 km/h (0 Bft)
05.05.2013 02:24 9,6 C 7,3 C 81 % 1021,4 hPa 0,0 l/m 0 min 0 min 0,0 UV-I 0 W/m 0,0 km/h (0 Bft)
05.05.2013 02:26 9,6 C 7,9 C 81 % 1021,4 hPa 0,0 l/m 0 min 0 min 0,0 UV-I 0 W/m 0,0 km/h (0 Bft)
05.05.2013 02:28 9,6 C 7,3 C 81 % 1021,4 hPa 0,0 l/m 0 min 0 min 0,0 UV-I 0 W/m 0,0 km/h (0 Bft)
05.05.2013 02:30 9,5 C 7,3 C 81 % 1021,4 hPa 0,0 l/m 0 min 0 min 0,0 UV-I 0 W/m 0,0 km/h (0 Bft)
05.05.2013 02:32 9,5 C 7,3 C 81 % 1021,4 hPa 0,0 l/m 0 min 0 min 0,0 UV-I 0 W/m 5,1 km/h (1 Bft)
05.05.2013 02:34 9,4 C 7,3 C 81 % 1021,5 hPa 0,0 l/m 0 min 0 min 0,0 UV-I 0 W/m 0,0 km/h (0 Bft)
05.05.2013 02:36 9,4 C 7,3 C 81 % 1021,5 hPa 0,0 l/m 0 min 0 min 0,0 UV-I 0 W/m 0,0 km/h (0 Bft)
05.05.2013 02:38 9,4 C 7,3 C 82 % 1021,4 hPa 0,0 l/m 0 min 0 min 0,0 UV-I 0 W/m 0,0 km/h (0 Bft)
05.05.2013 02:40 9,4 C 7,3 C 81 % 1021,4 hPa 0,0 l/m 0 min 0 min 0,0 UV-I 0 W/m 0,0 km/h (0 Bft)
05.05.2013 02:42 9,3 C 7,3 C 82 % 1021,5 hPa 0,0 l/m 0 min 0 min 0,0 UV-I 0 W/m 0,0 km/h (0 Bft)
05.05.2013 02:44 9,3 C 7,3 C 82 % 1021,4 hPa 0,0 l/m 0 min 0 min 0,0 UV-I 0 W/m 0,0 km/h (0 Bft)
05.05.2013 02:46 9,3 C 7,3 C 82 % 1021,4 hPa 0,0 l/m 0 min 0 min 0,0 UV-I 0 W/m 0,0 km/h (0 Bft)
05.05.2013 02:48 9,3 C 7,3 C 82 % 1021,5 hPa 0,0 l/m 0 min 0 min 0,0 UV-I 0 W/m 0,0 km/h (0 Bft)
05.05.2013 02:50 9,3 C 7,3 C 82 % 1021,5 hPa 0,0 l/m 0 min 0 min 0,0 UV-I 0 W/m 0,0 km/h (0 Bft)
05.05.2013 02:52 9,2 C 7,3 C 82 % 1021,4 hPa 0,0 l/m 0 min 0 min 0,0 UV-I 0 W/m 0,0 km/h (0 Bft)
05.05.2013 02:54 9,2 C 7,3 C 82 % 1021,5 hPa 0,0 l/m 0 min 0 min 0,0 UV-I 0 W/m 0,0 km/h (0 Bft)
05.05.2013 02:56 9,2 C 7,3 C 82 % 1021,5 hPa 0,0 l/m 0 min 0 min 0,0 UV-I 0 W/m 0,0 km/h (0 Bft)
05.05.2013 02:58 9,2 C 7,3 C 82 % 1021,5 hPa 0,0 l/m 0 min 0 min 0,0 UV-I 0 W/m 0,0 km/h (0 Bft)
05.05.2013 03:00 9,1 C 6,8 C 82 % 1021,5 hPa 0,0 l/m 0 min 0 min 0,0 UV-I 0 W/m 0,0 km/h (0 Bft)
05.05.2013 03:02 9,1 C 6,8 C 82 % 1021,6 hPa 0,0 l/m 0 min 0 min 0,0 UV-I 0 W/m 0,0 km/h (0 Bft)
05.05.2013 03:04 9,1 C 6,8 C 82 % 1021,6 hPa 0,0 l/m 0 min 0 min 0,0 UV-I 0 W/m 0,0 km/h (0 Bft)
05.05.2013 03:06 9,1 C 6,8 C 82 % 1021,6 hPa 0,0 l/m 0 min 0 min 0,0 UV-I 0 W/m 0,0 km/h (0 Bft)
05.05.2013 03:08 9,1 C 6,8 C 82 % 1021,5 hPa 0,0 l/m 0 min 0 min 0,0 UV-I 0 W/m 0,0 km/h (0 Bft)
05.05.2013 03:10 9,0 C 6,8 C 82 % 1021,6 hPa 0,0 l/m 0 min 0 min 0,0 UV-I 0 W/m 0,0 km/h (0 Bft)
05.05.2013 03:12 9,0 C 6,8 C 82 % 1021,6 hPa 0,0 l/m 0 min 0 min 0,0 UV-I 0 W/m 0,0 km/h (0 Bft)
05.05.2013 03:14 8,9 C 6,8 C 83 % 1021,5 hPa 0,0 l/m 0 min 0 min 0,0 UV-I 0 W/m 0,0 km/h (0 Bft)
05.05.2013 03:16 8,9 C 6,8 C 83 % 1021,5 hPa 0,0 l/m 0 min 0 min 0,0 UV-I 0 W/m 0,0 km/h (0 Bft)
05.05.2013 03:18 8,9 C 6,8 C 83 % 1021,5 hPa 0,0 l/m 0 min 0 min 0,0 UV-I 0 W/m 0,0 km/h (0 Bft)
05.05.2013 03:20 8,9 C 6,8 C 83 % 1021,4 hPa 0,0 l/m 0 min 0 min 0,0 UV-I 0 W/m 0,0 km/h (0 Bft)
05.05.2013 03:22 8,8 C 6,8 C 83 % 1021,5 hPa 0,0 l/m 0 min 0 min 0,0 UV-I 0 W/m 0,0 km/h (0 Bft)
05.05.2013 03:24 8,8 C 6,2 C 83 % 1021,4 hPa 0,0 l/m 0 min 0 min 0,0 UV-I 0 W/m 0,0 km/h (0 Bft)
05.05.2013 03:26 8,8 C 6,2 C 83 % 1021,4 hPa 0,0 l/m 0 min 0 min 0,0 UV-I 0 W/m 0,0 km/h (0 Bft)
05.05.2013 03:28 8,8 C 6,2 C 83 % 1021,5 hPa 0,0 l/m 0 min 0 min 0,0 UV-I 0 W/m 0,0 km/h (0 Bft)
05.05.2013 03:30 8,7 C 6,2 C 83 % 1021,5 hPa 0,0 l/m 0 min 0 min 0,0 UV-I 0 W/m 0,0 km/h (0 Bft)
05.05.2013 03:32 8,7 C 6,2 C 83 % 1021,6 hPa 0,0 l/m 0 min 0 min 0,0 UV-I 0 W/m 0,0 km/h (0 Bft)
05.05.2013 03:34 8,6 C 6,2 C 83 % 1021,6 hPa 0,0 l/m 0 min 0 min 0,0 UV-I 0 W/m 0,0 km/h (0 Bft)
05.05.2013 03:36 8,6 C 6,2 C 83 % 1021,6 hPa 0,0 l/m 0 min 0 min 0,0 UV-I 0 W/m 0,0 km/h (0 Bft)
05.05.2013 03:38 8,6 C 6,2 C 84 % 1021,6 hPa 0,0 l/m 0 min 0 min 0,0 UV-I 0 W/m 0,0 km/h (0 Bft)
05.05.2013 03:40 8,6 C 6,2 C 84 % 1021,6 hPa 0,0 l/m 0 min 0 min 0,0 UV-I 0 W/m 0,0 km/h (0 Bft)
05.05.2013 03:42 8,5 C 6,2 C 83 % 1021,6 hPa 0,0 l/m 0 min 0 min 0,0 UV-I 0 W/m 0,0 km/h (0 Bft)
05.05.2013 03:44 8,4 C 6,2 C 83 % 1021,6 hPa 0,0 l/m 0 min 0 min 0,0 UV-I 0 W/m 0,0 km/h (0 Bft)
05.05.2013 03:46 8,4 C 6,2 C 84 % 1021,6 hPa 0,0 l/m 0 min 0 min 0,0 UV-I 0 W/m 0,0 km/h (0 Bft)
05.05.2013 03:48 8,4 C 6,2 C 84 % 1021,6 hPa 0,0 l/m 0 min 0 min 0,0 UV-I 0 W/m 0,0 km/h (0 Bft)
05.05.2013 03:50 8,3 C 6,2 C 84 % 1021,6 hPa 0,0 l/m 0 min 0 min 0,0 UV-I 0 W/m 0,0 km/h (0 Bft)
05.05.2013 03:52 8,3 C 6,2 C 84 % 1021,6 hPa 0,0 l/m 0 min 0 min 0,0 UV-I 0 W/m 0,0 km/h (0 Bft)
05.05.2013 03:54 8,3 C 6,2 C 84 % 1021,5 hPa 0,0 l/m 0 min 0 min 0,0 UV-I 0 W/m 0,0 km/h (0 Bft)
05.05.2013 03:56 8,2 C 5,7 C 84 % 1021,5 hPa 0,0 l/m 0 min 0 min 0,0 UV-I 0 W/m 0,0 km/h (0 Bft)
05.05.2013 03:58 8,2 C 5,7 C 84 % 1021,5 hPa 0,0 l/m 0 min 0 min 0,0 UV-I 0 W/m 0,0 km/h (0 Bft)
05.05.2013 04:00 8,2 C 5,7 C 84 % 1021,4 hPa 0,0 l/m 0 min 0 min 0,0 UV-I 0 W/m 0,0 km/h (0 Bft)
05.05.2013 04:02 8,2 C 5,7 C 84 % 1021,4 hPa 0,0 l/m 0 min 0 min 0,0 UV-I 0 W/m 0,0 km/h (0 Bft)
05.05.2013 04:07 8,1 C 5,7 C 85 % 1021,3 hPa 0,0 l/m 0 min 0 min 0,0 UV-I 0 W/m 5,1 km/h (1 Bft)
05.05.2013 04:08 8,1 C 5,7 C 85 % 1021,3 hPa 0,0 l/m 0 min 0 min 0,0 UV-I 0 W/m 0,0 km/h (0 Bft)
05.05.2013 04:10 8,1 C 6,2 C 85 % 1021,4 hPa 0,0 l/m 0 min 0 min 0,0 UV-I 0 W/m 0,0 km/h (0 Bft)
05.05.2013 04:12 8,0 C 6,2 C 86 % 1021,4 hPa 0,0 l/m 0 min 0 min 0,0 UV-I 0 W/m 0,0 km/h (0 Bft)
05.05.2013 04:14 7,9 C 6,2 C 86 % 1021,4 hPa 0,0 l/m 0 min 0 min 0,0 UV-I 0 W/m 2,6 km/h (1 Bft)
05.05.2013 04:16 7,9 C 6,2 C 86 % 1021,5 hPa 0,0 l/m 0 min 0 min 0,0 UV-I 0 W/m 0,0 km/h (0 Bft)
05.05.2013 04:18 7,9 C 6,2 C 86 % 1021,3 hPa 0,0 l/m 0 min 0 min 0,0 UV-I 0 W/m 0,0 km/h (0 Bft)
05.05.2013 04:20 7,9 C 6,2 C 86 % 1021,3 hPa 0,0 l/m 0 min 0 min 0,0 UV-I 0 W/m 0,0 km/h (0 Bft)
05.05.2013 04:22 7,8 C 6,2 C 86 % 1021,2 hPa 0,0 l/m 0 min 0 min 0,0 UV-I 0 W/m 0,0 km/h (0 Bft)
05.05.2013 04:24 7,8 C 6,2 C 87 % 1021,3 hPa 0,0 l/m 0 min 0 min 0,0 UV-I 0 W/m 0,0 km/h (0 Bft)
05.05.2013 04:26 7,8 C 6,2 C 87 % 1021,3 hPa 0,0 l/m 0 min 0 min 0,0 UV-I 0 W/m 0,0 km/h (0 Bft)
05.05.2013 04:28 7,8 C 6,2 C 87 % 1021,4 hPa 0,0 l/m 0 min 0 min 0,0 UV-I 0 W/m 0,0 km/h (0 Bft)
05.05.2013 04:30 7,8 C 6,8 C 87 % 1021,3 hPa 0,0 l/m 0 min 0 min 0,0 UV-I 0 W/m 0,0 km/h (0 Bft)
05.05.2013 04:32 7,8 C 6,8 C 88 % 1021,3 hPa 0,0 l/m 0 min 0 min 0,0 UV-I 0 W/m 0,0 km/h (0 Bft)
05.05.2013 04:34 7,8 C 6,8 C 88 % 1021,3 hPa 0,0 l/m 0 min 0 min 0,0 UV-I 0 W/m 0,0 km/h (0 Bft)
05.05.2013 04:36 7,8 C 6,8 C 88 % 1021,3 hPa 0,0 l/m 0 min 0 min 0,0 UV-I 0 W/m 0,0 km/h (0 Bft)
05.05.2013 04:38 7,8 C 6,8 C 88 % 1021,3 hPa 0,0 l/m 0 min 0 min 0,0 UV-I 0 W/m 0,0 km/h (0 Bft)
05.05.2013 04:40 7,8 C 6,8 C 88 % 1021,3 hPa 0,0 l/m 0 min 0 min 0,0 UV-I 0 W/m 0,0 km/h (0 Bft)
05.05.2013 04:42 7,8 C 6,8 C 88 % 1021,3 hPa 0,0 l/m 0 min 0 min 0,0 UV-I 0 W/m 0,0 km/h (0 Bft)
05.05.2013 04:44 7,8 C 6,8 C 88 % 1021,3 hPa 0,0 l/m 0 min 0 min 0,0 UV-I 0 W/m 0,0 km/h (0 Bft)
05.05.2013 04:46 7,8 C 6,8 C 88 % 1021,3 hPa 0,0 l/m 0 min 0 min 0,0 UV-I 0 W/m 0,0 km/h (0 Bft)
05.05.2013 04:48 7,8 C 6,2 C 88 % 1021,4 hPa 0,0 l/m 0 min 0 min 0,0 UV-I 0 W/m 0,0 km/h (0 Bft)
05.05.2013 04:50 7,8 C 6,2 C 88 % 1021,3 hPa 0,0 l/m 0 min 0 min 0,0 UV-I 0 W/m 0,0 km/h (0 Bft)
05.05.2013 04:52 7,8 C 6,2 C 88 % 1021,3 hPa 0,0 l/m 0 min 0 min 0,0 UV-I 0 W/m 0,0 km/h (0 Bft)
05.05.2013 04:54 7,8 C 6,2 C 88 % 1021,4 hPa 0,0 l/m 0 min 0 min 0,0 UV-I 0 W/m 0,0 km/h (0 Bft)
05.05.2013 04:56 7,8 C 6,2 C 88 % 1021,5 hPa 0,0 l/m 0 min 0 min 0,0 UV-I 0 W/m 0,0 km/h (0 Bft)
05.05.2013 04:58 7,8 C 6,2 C 88 % 1021,4 hPa 0,0 l/m 0 min 0 min 0,0 UV-I 0 W/m 0,0 km/h (0 Bft)
05.05.2013 05:00 7,8 C 6,2 C 88 % 1021,4 hPa 0,0 l/m 0 min 0 min 0,0 UV-I 0 W/m 0,0 km/h (0 Bft)
05.05.2013 05:02 7,8 C 6,2 C 88 % 1021,4 hPa 0,0 l/m 0 min 0 min 0,0 UV-I 0 W/m 0,0 km/h (0 Bft)
05.05.2013 05:04 7,8 C 5,7 C 88 % 1021,5 hPa 0,0 l/m 0 min 0 min 0,0 UV-I 0 W/m 0,0 km/h (0 Bft)
05.05.2013 05:06 7,7 C 5,7 C 88 % 1021,6 hPa 0,0 l/m 0 min 0 min 0,0 UV-I 0 W/m 0,0 km/h (0 Bft)
05.05.2013 05:08 7,7 C 5,7 C 88 % 1021,6 hPa 0,0 l/m 0 min 0 min 0,0 UV-I 0 W/m 0,0 km/h (0 Bft)
05.05.2013 05:10 7,7 C 5,7 C 88 % 1021,7 hPa 0,0 l/m 0 min 0 min 0,0 UV-I 0 W/m 0,0 km/h (0 Bft)
05.05.2013 05:12 7,7 C 5,7 C 88 % 1021,7 hPa 0,0 l/m 0 min 0 min 0,0 UV-I 0 W/m 0,0 km/h (0 Bft)
05.05.2013 05:14 7,7 C 5,7 C 88 % 1021,6 hPa 0,0 l/m 0 min 0 min 0,0 UV-I 0 W/m 0,0 km/h (0 Bft)
05.05.2013 05:16 7,7 C 5,7 C 88 % 1021,7 hPa 0,0 l/m 0 min 0 min 0,0 UV-I 0 W/m 0,0 km/h (0 Bft)
05.05.2013 05:18 7,6 C 5,7 C 87 % 1021,7 hPa 0,0 l/m 0 min 0 min 0,0 UV-I 0 W/m 0,0 km/h (0 Bft)
05.05.2013 05:20 7,6 C 5,7 C 87 % 1021,7 hPa 0,0 l/m 0 min 0 min 0,0 UV-I 0 W/m 0,0 km/h (0 Bft)
05.05.2013 05:22 7,6 C 5,7 C 87 % 1021,7 hPa 0,0 l/m 0 min 0 min 0,0 UV-I 0 W/m 0,0 km/h (0 Bft)
05.05.2013 05:24 7,6 C 5,7 C 87 % 1021,8 hPa 0,0 l/m 0 min 0 min 0,0 UV-I 0 W/m 0,0 km/h (0 Bft)
05.05.2013 05:26 7,5 C 5,1 C 87 % 1021,8 hPa 0,0 l/m 0 min 0 min 0,0 UV-I 0 W/m 0,0 km/h (0 Bft)
05.05.2013 05:28 7,5 C 5,1 C 87 % 1021,8 hPa 0,0 l/m 0 min 0 min 0,0 UV-I 0 W/m 0,0 km/h (0 Bft)
05.05.2013 05:30 7,4 C 5,1 C 87 % 1021,8 hPa 0,0 l/m 0 min 0 min 0,0 UV-I 0 W/m 0,0 km/h (0 Bft)
05.05.2013 05:32 7,4 C 5,1 C 87 % 1021,9 hPa 0,0 l/m 0 min 0 min 0,0 UV-I 0 W/m 0,0 km/h (0 Bft)
05.05.2013 05:34 7,4 C 5,1 C 87 % 1021,9 hPa 0,0 l/m 0 min 0 min 0,0 UV-I 0 W/m 0,0 km/h (0 Bft)
05.05.2013 05:36 7,4 C 5,1 C 87 % 1021,8 hPa 0,0 l/m 0 min 0 min 0,0 UV-I 0 W/m 0,0 km/h (0 Bft)
05.05.2013 05:38 7,3 C 5,1 C 87 % 1021,8 hPa 0,0 l/m 0 min 0 min 0,0 UV-I 0 W/m 0,0 km/h (0 Bft)
05.05.2013 05:40 7,3 C 5,1 C 87 % 1021,9 hPa 0,0 l/m 0 min 0 min 0,0 UV-I 0 W/m 0,0 km/h (0 Bft)
05.05.2013 05:42 7,3 C 5,1 C 87 % 1021,9 hPa 0,0 l/m 0 min 0 min 0,0 UV-I 0 W/m 0,0 km/h (0 Bft)
05.05.2013 05:44 7,3 C 5,1 C 87 % 1022,0 hPa 0,0 l/m 0 min 0 min 0,0 UV-I 0 W/m 0,0 km/h (0 Bft)
05.05.2013 05:46 7,2 C 5,1 C 87 % 1022,0 hPa 0,0 l/m 0 min 0 min 0,0 UV-I 0 W/m 0,0 km/h (0 Bft)
05.05.2013 05:48 7,2 C 5,1 C 87 % 1022,0 hPa 0,0 l/m 0 min 0 min 0,0 UV-I 0 W/m 0,0 km/h (0 Bft)
05.05.2013 05:50 7,2 C 5,1 C 87 % 1022,0 hPa 0,0 l/m 0 min 0 min 0,0 UV-I 0 W/m 0,0 km/h (0 Bft)
05.05.2013 05:52 7,2 C 5,1 C 88 % 1022,0 hPa 0,0 l/m 0 min 0 min 0,0 UV-I 0 W/m 0,0 km/h (0 Bft)
05.05.2013 05:54 7,1 C 5,1 C 88 % 1022,0 hPa 0,0 l/m 0 min 0 min 0,0 UV-I 0 W/m 0,0 km/h (0 Bft)
05.05.2013 05:56 7,1 C 5,1 C 88 % 1022,0 hPa 0,0 l/m 0 min 0 min 0,0 UV-I 0 W/m 0,0 km/h (0 Bft)
05.05.2013 05:58 7,1 C 5,1 C 88 % 1022,0 hPa 0,0 l/m 0 min 0 min 0,0 UV-I 5 W/m 0,0 km/h (0 Bft)
05.05.2013 06:00 7,1 C 5,1 C 88 % 1022,0 hPa 0,0 l/m 0 min 0 min 0,0 UV-I 5 W/m 0,0 km/h (0 Bft)
05.05.2013 06:02 7,1 C 5,1 C 88 % 1022,0 hPa 0,0 l/m 0 min 0 min 0,0 UV-I 5 W/m 0,0 km/h (0 Bft)
05.05.2013 06:04 7,1 C 5,1 C 88 % 1022,1 hPa 0,0 l/m 0 min 0 min 0,0 UV-I 5 W/m 0,0 km/h (0 Bft)
05.05.2013 06:06 7,0 C 5,1 C 88 % 1022,0 hPa 0,0 l/m 0 min 0 min 0,0 UV-I 7 W/m 0,0 km/h (0 Bft)
05.05.2013 06:08 7,0 C 5,1 C 88 % 1022,0 hPa 0,0 l/m 0 min 0 min 0,0 UV-I 7 W/m 0,0 km/h (0 Bft)
05.05.2013 06:10 6,9 C 5,1 C 88 % 1022,0 hPa 0,0 l/m 0 min 0 min 0,0 UV-I 9 W/m 0,0 km/h (0 Bft)
05.05.2013 06:12 6,9 C 5,1 C 89 % 1022,0 hPa 0,0 l/m 0 min 0 min 0,0 UV-I 9 W/m 0,0 km/h (0 Bft)
05.05.2013 06:14 6,9 C 5,1 C 89 % 1022,1 hPa 0,0 l/m 0 min 0 min 0,0 UV-I 9 W/m 0,0 km/h (0 Bft)
05.05.2013 06:16 6,9 C 5,1 C 89 % 1022,1 hPa 0,0 l/m 0 min 0 min 0,0 UV-I 11 W/m 0,0 km/h (0 Bft)
05.05.2013 06:18 6,9 C 5,1 C 89 % 1022,1 hPa 0,0 l/m 0 min 0 min 0,0 UV-I 11 W/m 0,0 km/h (0 Bft)
05.05.2013 06:20 6,9 C 5,1 C 89 % 1022,1 hPa 0,0 l/m 0 min 0 min 0,0 UV-I 12 W/m 0,0 km/h (0 Bft)
05.05.2013 06:22 6,9 C 5,1 C 89 % 1022,1 hPa 0,0 l/m 0 min 0 min 0,0 UV-I 12 W/m 0,0 km/h (0 Bft)
05.05.2013 06:24 6,8 C 5,1 C 89 % 1022,1 hPa 0,0 l/m 0 min 0 min 0,0 UV-I 14 W/m 0,0 km/h (0 Bft)
05.05.2013 06:26 6,8 C 5,1 C 89 % 1022,1 hPa 0,0 l/m 0 min 0 min 0,0 UV-I 14 W/m 0,0 km/h (0 Bft)
05.05.2013 06:28 6,8 C 5,1 C 89 % 1022,1 hPa 0,0 l/m 0 min 0 min 0,0 UV-I 14 W/m 0,0 km/h (0 Bft)
05.05.2013 06:30 6,8 C 5,1 C 89 % 1022,1 hPa 0,0 l/m 0 min 0 min 0,0 UV-I 16 W/m 0,0 km/h (0 Bft)
05.05.2013 06:32 6,8 C 5,1 C 89 % 1022,1 hPa 0,0 l/m 0 min 0 min 0,0 UV-I 16 W/m 0,0 km/h (0 Bft)
05.05.2013 06:34 6,8 C 5,7 C 89 % 1022,2 hPa 0,0 l/m 0 min 0 min 0,0 UV-I 18 W/m 0,0 km/h (0 Bft)
05.05.2013 06:36 6,8 C 5,7 C 90 % 1022,1 hPa 0,0 l/m 0 min 0 min 0,0 UV-I 18 W/m 0,0 km/h (0 Bft)
05.05.2013 06:38 6,8 C 5,7 C 90 % 1022,2 hPa 0,0 l/m 0 min 0 min 0,0 UV-I 19 W/m 0,0 km/h (0 Bft)
05.05.2013 06:40 6,8 C 5,7 C 90 % 1022,1 hPa 0,0 l/m 0 min 0 min 0,0 UV-I 19 W/m 0,0 km/h (0 Bft)
05.05.2013 06:42 6,8 C 5,7 C 90 % 1022,2 hPa 0,0 l/m 0 min 0 min 0,0 UV-I 21 W/m 0,0 km/h (0 Bft)
05.05.2013 06:44 6,8 C 5,7 C 90 % 1022,2 hPa 0,0 l/m 0 min 0 min 0,0 UV-I 21 W/m 0,0 km/h (0 Bft)
05.05.2013 06:46 6,8 C 5,7 C 90 % 1022,2 hPa 0,0 l/m 0 min 0 min 0,0 UV-I 23 W/m 0,0 km/h (0 Bft)
05.05.2013 06:48 6,8 C 5,7 C 90 % 1022,2 hPa 0,0 l/m 0 min 0 min 0,0 UV-I 25 W/m 0,0 km/h (0 Bft)
05.05.2013 06:50 6,8 C 5,7 C 90 % 1022,2 hPa 0,0 l/m 0 min 0 min 0,0 UV-I 25 W/m 0,0 km/h (0 Bft)
05.05.2013 06:52 6,8 C 5,7 C 90 % 1022,2 hPa 0,0 l/m 0 min 0 min 0,0 UV-I 25 W/m 0,0 km/h (0 Bft)
05.05.2013 06:54 6,8 C 5,7 C 90 % 1022,2 hPa 0,0 l/m 0 min 0 min 0,0 UV-I 25 W/m 0,0 km/h (0 Bft)
05.05.2013 06:56 6,8 C 5,7 C 90 % 1022,2 hPa 0,0 l/m 0 min 0 min 0,0 UV-I 26 W/m 0,0 km/h (0 Bft)
05.05.2013 06:58 6,8 C 6,2 C 90 % 1022,3 hPa 0,0 l/m 0 min 0 min 0,0 UV-I 26 W/m 0,0 km/h (0 Bft)
05.05.2013 07:00 6,8 C 6,2 C 90 % 1022,2 hPa 0,0 l/m 0 min 0 min 0,0 UV-I 28 W/m 0,0 km/h (0 Bft)
05.05.2013 07:02 6,8 C 6,2 C 90 % 1022,3 hPa 0,0 l/m 0 min 0 min 0,0 UV-I 28 W/m 0,0 km/h (0 Bft)
05.05.2013 07:04 6,8 C 6,2 C 91 % 1022,3 hPa 0,0 l/m 0 min 0 min 0,0 UV-I 30 W/m 0,0 km/h (0 Bft)
05.05.2013 07:06 6,8 C 6,2 C 91 % 1022,3 hPa 0,0 l/m 0 min 0 min 0,0 UV-I 30 W/m 0,0 km/h (0 Bft)
05.05.2013 07:08 6,8 C 6,2 C 91 % 1022,3 hPa 0,0 l/m 0 min 0 min 0,0 UV-I 32 W/m 0,0 km/h (0 Bft)
05.05.2013 07:10 6,9 C 6,8 C 91 % 1022,4 hPa 0,0 l/m 0 min 0 min 0,0 UV-I 33 W/m 0,0 km/h (0 Bft)
05.05.2013 07:12 6,9 C 6,8 C 91 % 1022,4 hPa 0,0 l/m 0 min 0 min 0,0 UV-I 33 W/m 0,0 km/h (0 Bft)
05.05.2013 07:14 7,0 C 6,8 C 91 % 1022,4 hPa 0,0 l/m 0 min 0 min 0,0 UV-I 33 W/m 0,0 km/h (0 Bft)
05.05.2013 07:16 7,0 C 6,8 C 91 % 1022,4 hPa 0,0 l/m 0 min 0 min 0,0 UV-I 35 W/m 0,0 km/h (0 Bft)
05.05.2013 07:18 7,1 C 7,3 C 92 % 1022,4 hPa 0,0 l/m 0 min 0 min 0,0 UV-I 35 W/m 0,0 km/h (0 Bft)
05.05.2013 07:20 7,1 C 7,3 C 91 % 1022,4 hPa 0,0 l/m 0 min 0 min 0,0 UV-I 37 W/m 0,0 km/h (0 Bft)
05.05.2013 07:22 7,2 C 7,3 C 92 % 1022,4 hPa 0,0 l/m 0 min 0 min 0,0 UV-I 37 W/m 2,6 km/h (1 Bft)
05.05.2013 07:24 7,2 C 7,3 C 92 % 1022,5 hPa 0,0 l/m 0 min 0 min 0,0 UV-I 39 W/m 0,0 km/h (0 Bft)
05.05.2013 07:26 7,2 C 7,3 C 92 % 1022,4 hPa 0,0 l/m 0 min 0 min 0,0 UV-I 39 W/m 0,0 km/h (0 Bft)
05.05.2013 07:28 7,3 C 7,3 C 92 % 1022,5 hPa 0,0 l/m 0 min 0 min 0,0 UV-I 39 W/m 0,0 km/h (0 Bft)
05.05.2013 07:30 7,3 C 7,3 C 92 % 1022,4 hPa 0,0 l/m 0 min 0 min 0,0 UV-I 40 W/m 0,0 km/h (0 Bft)
05.05.2013 07:32 7,4 C 7,3 C 92 % 1022,5 hPa 0,0 l/m 0 min 0 min 0,0 UV-I 40 W/m 0,0 km/h (0 Bft)
05.05.2013 07:34 7,4 C 7,3 C 92 % 1022,4 hPa 0,0 l/m 0 min 0 min 0,0 UV-I 42 W/m 0,0 km/h (0 Bft)
05.05.2013 07:36 7,4 C 7,3 C 92 % 1022,4 hPa 0,0 l/m 0 min 0 min 0,0 UV-I 44 W/m 0,0 km/h (0 Bft)
05.05.2013 07:38 7,5 C 7,9 C 92 % 1022,6 hPa 0,0 l/m 0 min 0 min 0,0 UV-I 44 W/m 0,0 km/h (0 Bft)
05.05.2013 07:40 7,6 C 7,9 C 92 % 1022,6 hPa 0,0 l/m 0 min 0 min 0,0 UV-I 46 W/m 0,0 km/h (0 Bft)
05.05.2013 07:42 7,6 C 7,9 C 96 % 1022,6 hPa 0,0 l/m 0 min 0 min 0,0 UV-I 46 W/m 0,0 km/h (0 Bft)
05.05.2013 07:44 7,7 C 7,9 C 92 % 1022,6 hPa 0,0 l/m 0 min 0 min 0,0 UV-I 47 W/m 0,0 km/h (0 Bft)
05.05.2013 07:46 7,7 C 7,9 C 92 % 1022,6 hPa 0,0 l/m 0 min 0 min 0,0 UV-I 47 W/m 0,0 km/h (0 Bft)
05.05.2013 07:48 7,8 C 7,9 C 92 % 1022,6 hPa 0,0 l/m 0 min 0 min 0,0 UV-I 49 W/m 0,0 km/h (0 Bft)
05.05.2013 07:50 7,8 C 7,9 C 92 % 1022,6 hPa 0,0 l/m 0 min 0 min 0,0 UV-I 49 W/m 2,6 km/h (1 Bft)
05.05.2013 07:52 7,9 C 8,4 C 92 % 1022,6 hPa 0,0 l/m 0 min 0 min 0,0 UV-I 51 W/m 5,1 km/h (1 Bft)
05.05.2013 07:54 8,0 C 8,4 C 96 % 1022,6 hPa 0,0 l/m 0 min 0 min 0,0 UV-I 53 W/m 0,0 km/h (0 Bft)
05.05.2013 07:56 8,1 C 8,4 C 92 % 1022,6 hPa 0,0 l/m 0 min 0 min 0,0 UV-I 53 W/m 0,0 km/h (0 Bft)
05.05.2013 07:58 8,1 C 8,4 C 92 % 1022,6 hPa 0,0 l/m 0 min 0 min 0,0 UV-I 53 W/m 0,0 km/h (0 Bft)
05.05.2013 08:00 8,2 C 8,4 C 92 % 1022,6 hPa 0,0 l/m 0 min 0 min 0,0 UV-I 54 W/m 0,0 km/h (0 Bft)
05.05.2013 08:02 8,3 C 9,0 C 92 % 1022,5 hPa 0,0 l/m 0 min 0 min 0,0 UV-I 54 W/m 5,1 km/h (1 Bft)
05.05.2013 08:04 8,4 C 9,0 C 92 % 1022,6 hPa 0,0 l/m 0 min 0 min 0,0 UV-I 54 W/m 7,7 km/h (2 Bft)
05.05.2013 08:06 8,5 C 9,0 C 92 % 1022,5 hPa 0,0 l/m 0 min 0 min 0,0 UV-I 53 W/m 2,6 km/h (1 Bft)
05.05.2013 08:08 8,6 C 9,0 C 92 % 1022,6 hPa 0,0 l/m 0 min 0 min 0,0 UV-I 53 W/m 5,1 km/h (1 Bft)
05.05.2013 08:10 8,7 C 9,0 C 92 % 1022,6 hPa 0,0 l/m 0 min 0 min 0,0 UV-I 54 W/m 0,0 km/h (0 Bft)
05.05.2013 08:12 8,8 C 9,0 C 91 % 1022,6 hPa 0,0 l/m 0 min 0 min 0,0 UV-I 76 W/m 2,6 km/h (1 Bft)
05.05.2013 08:14 8,8 C 9,6 C 91 % 1022,5 hPa 0,0 l/m 0 min 0 min 0,0 UV-I 84 W/m 0,0 km/h (0 Bft)
05.05.2013 08:16 8,9 C 9,6 C 91 % 1022,6 hPa 0,0 l/m 2 min 0 min 0,0 UV-I 243 W/m 0,0 km/h (0 Bft)
05.05.2013 08:18 9,1 C 9,6 C 91 % 1022,6 hPa 0,0 l/m 2 min 0 min 0,0 UV-I 264 W/m 2,6 km/h (1 Bft)
05.05.2013 08:20 9,1 C 9,6 C 91 % 1022,6 hPa 0,0 l/m 2 min 0 min 0,0 UV-I 271 W/m 0,0 km/h (0 Bft)
05.05.2013 08:22 9,2 C 9,6 C 91 % 1022,7 hPa 0,0 l/m 2 min 0 min 0,0 UV-I 276 W/m 0,0 km/h (0 Bft)
05.05.2013 08:24 9,3 C 9,6 C 90 % 1022,7 hPa 0,0 l/m 2 min 0 min 0,0 UV-I 281 W/m 0,0 km/h (0 Bft)
05.05.2013 08:26 9,4 C 9,6 C 90 % 1022,8 hPa 0,0 l/m 2 min 0 min 0,0 UV-I 287 W/m 7,7 km/h (2 Bft)
05.05.2013 08:28 9,5 C 9,6 C 90 % 1022,8 hPa 0,0 l/m 2 min 0 min 0,0 UV-I 290 W/m 0,0 km/h (0 Bft)
05.05.2013 08:30 9,6 C 10,1 C 89 % 1022,7 hPa 0,0 l/m 2 min 0 min 0,0 UV-I 295 W/m 2,6 km/h (1 Bft)
05.05.2013 08:32 9,7 C 10,1 C 89 % 1022,8 hPa 0,0 l/m 2 min 0 min 0,0 UV-I 302 W/m 0,0 km/h (0 Bft)
05.05.2013 08:34 9,8 C 10,1 C 89 % 1022,8 hPa 0,0 l/m 2 min 0 min 0,0 UV-I 308 W/m 2,6 km/h (1 Bft)
05.05.2013 08:36 9,9 C 10,1 C 89 % 1022,8 hPa 0,0 l/m 2 min 0 min 0,0 UV-I 309 W/m 7,7 km/h (2 Bft)
05.05.2013 08:38 10,0 C 10,1 C 89 % 1022,8 hPa 0,0 l/m 2 min 0 min 0,0 UV-I 318 W/m 5,1 km/h (1 Bft)
05.05.2013 08:40 10,2 C 10,1 C 88 % 1022,8 hPa 0,0 l/m 2 min 0 min 0,0 UV-I 320 W/m 0,0 km/h (0 Bft)
05.05.2013 08:42 10,3 C 10,1 C 88 % 1022,9 hPa 0,0 l/m 2 min 0 min 0,0 UV-I 325 W/m 2,6 km/h (1 Bft)
05.05.2013 08:44 10,3 C 10,1 C 87 % 1022,9 hPa 0,0 l/m 2 min 0 min 0,0 UV-I 334 W/m 0,0 km/h (0 Bft)
05.05.2013 08:46 10,5 C 10,1 C 87 % 1022,8 hPa 0,0 l/m 2 min 0 min 0,0 UV-I 341 W/m 0,0 km/h (0 Bft)
05.05.2013 08:48 10,6 C 10,7 C 87 % 1022,8 hPa 0,0 l/m 2 min 0 min 0,0 UV-I 332 W/m 0,0 km/h (0 Bft)
05.05.2013 08:50 10,7 C 10,7 C 86 % 1022,9 hPa 0,0 l/m 2 min 0 min 0,0 UV-I 338 W/m 0,0 km/h (0 Bft)
05.05.2013 08:52 10,8 C 10,7 C 86 % 1022,9 hPa 0,0 l/m 2 min 0 min 0,0 UV-I 348 W/m 0,0 km/h (0 Bft)
05.05.2013 08:54 10,9 C 10,7 C 86 % 1022,9 hPa 0,0 l/m 2 min 0 min 0,0 UV-I 341 W/m 0,0 km/h (0 Bft)
05.05.2013 08:56 11,1 C 10,7 C 85 % 1022,9 hPa 0,0 l/m 2 min 0 min 0,0 UV-I 345 W/m 2,6 km/h (1 Bft)
05.05.2013 08:58 11,3 C 10,7 C 85 % 1023,0 hPa 0,0 l/m 2 min 0 min 0,0 UV-I 364 W/m 2,6 km/h (1 Bft)
05.05.2013 09:00 11,4 C 11,2 C 84 % 1023,1 hPa 0,0 l/m 2 min 0 min 0,0 UV-I 376 W/m 2,6 km/h (1 Bft)
05.05.2013 09:02 11,6 C 11,2 C 83 % 1023,0 hPa 0,0 l/m 2 min 0 min 0,0 UV-I 381 W/m 2,6 km/h (1 Bft)
05.05.2013 09:04 11,8 C 11,2 C 83 % 1022,9 hPa 0,0 l/m 2 min 0 min 0,0 UV-I 387 W/m 2,6 km/h (1 Bft)
05.05.2013 09:06 11,9 C 11,2 C 82 % 1022,9 hPa 0,0 l/m 2 min 0 min 0,0 UV-I 383 W/m 2,6 km/h (1 Bft)
05.05.2013 09:08 12,1 C 11,2 C 82 % 1023,0 hPa 0,0 l/m 2 min 0 min 0,5 UV-I 396 W/m 0,0 km/h (0 Bft)
05.05.2013 09:10 12,2 C 11,2 C 81 % 1023,0 hPa 0,0 l/m 2 min 0 min 0,5 UV-I 408 W/m 10,3 km/h (2 Bft)
05.05.2013 09:12 12,4 C 11,2 C 80 % 1023,1 hPa 0,0 l/m 2 min 0 min 0,6 UV-I 418 W/m 2,6 km/h (1 Bft)
05.05.2013 09:14 12,5 C 11,2 C 80 % 1023,1 hPa 0,0 l/m 2 min 0 min 0,6 UV-I 422 W/m 0,0 km/h (0 Bft)
05.05.2013 09:16 12,7 C 11,8 C 79 % 1023,0 hPa 0,0 l/m 2 min 0 min 0,6 UV-I 418 W/m 2,6 km/h (1 Bft)
05.05.2013 09:18 12,8 C 12,3 C 79 % 1023,1 hPa 0,0 l/m 2 min 0 min 0,6 UV-I 424 W/m 5,1 km/h (1 Bft)
05.05.2013 09:20 12,9 C 13,4 C 79 % 1023,0 hPa 0,0 l/m 2 min 0 min 0,7 UV-I 429 W/m 2,6 km/h (1 Bft)
05.05.2013 09:22 13,1 C 14,0 C 78 % 1023,0 hPa 0,0 l/m 2 min 0 min 0,7 UV-I 434 W/m 2,6 km/h (1 Bft)
05.05.2013 09:24 13,2 C 14,0 C 78 % 1023,0 hPa 0,0 l/m 2 min 0 min 0,8 UV-I 448 W/m 0,0 km/h (0 Bft)
05.05.2013 09:26 13,4 C 13,4 C 78 % 1023,1 hPa 0,0 l/m 2 min 0 min 0,8 UV-I 452 W/m 2,6 km/h (1 Bft)
05.05.2013 09:28 13,5 C 13,4 C 76 % 1023,0 hPa 0,0 l/m 2 min 0 min 0,8 UV-I 459 W/m 0,0 km/h (0 Bft)
05.05.2013 09:30 13,7 C 13,4 C 76 % 1023,0 hPa 0,0 l/m 2 min 0 min 0,8 UV-I 448 W/m 0,0 km/h (0 Bft)
05.05.2013 09:32 13,8 C 14,6 C 76 % 1023,0 hPa 0,0 l/m 2 min 0 min 0,9 UV-I 469 W/m 0,0 km/h (0 Bft)
05.05.2013 09:34 14,0 C 14,6 C 75 % 1023,0 hPa 0,0 l/m 2 min 0 min 1,0 UV-I 473 W/m 10,3 km/h (2 Bft)
05.05.2013 09:36 14,0 C 15,7 C 75 % 1023,0 hPa 0,0 l/m 2 min 0 min 1,0 UV-I 476 W/m 0,0 km/h (0 Bft)
05.05.2013 09:38 14,2 C 17,3 C 74 % 1023,0 hPa 0,0 l/m 2 min 0 min 1,0 UV-I 471 W/m 2,6 km/h (1 Bft)
05.05.2013 09:40 14,3 C 17,9 C 73 % 1023,0 hPa 0,0 l/m 2 min 0 min 1,1 UV-I 490 W/m 2,6 km/h (1 Bft)
05.05.2013 09:42 14,4 C 18,4 C 73 % 1023,0 hPa 0,0 l/m 2 min 0 min 1,1 UV-I 482 W/m 2,6 km/h (1 Bft)
05.05.2013 09:44 14,5 C 19,6 C 72 % 1023,0 hPa 0,0 l/m 2 min 0 min 1,2 UV-I 506 W/m 7,7 km/h (2 Bft)
05.05.2013 09:46 14,7 C 21,2 C 72 % 1023,0 hPa 0,0 l/m 2 min 0 min 1,2 UV-I 497 W/m 2,6 km/h (1 Bft)
05.05.2013 09:48 14,7 C 21,2 C 71 % 1023,0 hPa 0,0 l/m 2 min 0 min 1,2 UV-I 504 W/m 2,6 km/h (1 Bft)
05.05.2013 09:50 14,8 C 21,8 C 71 % 1023,0 hPa 0,0 l/m 2 min 0 min 1,3 UV-I 517 W/m 2,6 km/h (1 Bft)
05.05.2013 09:52 14,9 C 22,3 C 70 % 1023,0 hPa 0,0 l/m 2 min 0 min 1,3 UV-I 529 W/m 10,3 km/h (2 Bft)
05.05.2013 09:54 15,0 C 22,9 C 71 % 1022,9 hPa 0,0 l/m 2 min 0 min 1,3 UV-I 522 W/m 12,9 km/h (3 Bft)
05.05.2013 09:56 15,2 C 22,9 C 70 % 1023,0 hPa 0,0 l/m 2 min 0 min 1,4 UV-I 533 W/m 12,9 km/h (3 Bft)
05.05.2013 09:58 15,2 C 21,8 C 68 % 1022,9 hPa 0,0 l/m 2 min 0 min 1,4 UV-I 536 W/m 12,9 km/h (3 Bft)
05.05.2013 10:00 15,3 C 22,9 C 69 % 1022,9 hPa 0,0 l/m 2 min 0 min 1,4 UV-I 536 W/m 7,7 km/h (2 Bft)
05.05.2013 10:02 15,3 C 21,8 C 68 % 1023,0 hPa 0,0 l/m 2 min 0 min 1,5 UV-I 550 W/m 7,7 km/h (2 Bft)
05.05.2013 10:04 15,4 C 21,8 C 67 % 1023,0 hPa 0,0 l/m 2 min 0 min 1,5 UV-I 545 W/m 10,3 km/h (2 Bft)
05.05.2013 10:06 15,4 C 21,2 C 66 % 1023,0 hPa 0,0 l/m 2 min 0 min 1,5 UV-I 533 W/m 18,0 km/h (3 Bft)
05.05.2013 10:08 15,5 C 21,8 C 66 % 1023,0 hPa 0,0 l/m 2 min 0 min 1,5 UV-I 548 W/m 12,9 km/h (3 Bft)
05.05.2013 10:10 15,6 C 22,3 C 66 % 1023,0 hPa 0,0 l/m 2 min 0 min 1,6 UV-I 559 W/m 2,6 km/h (1 Bft)
05.05.2013 10:12 15,6 C 22,9 C 66 % 1022,9 hPa 0,0 l/m 2 min 0 min 1,6 UV-I 568 W/m 7,7 km/h (2 Bft)
05.05.2013 10:14 15,7 C 22,3 C 66 % 1023,0 hPa 0,0 l/m 2 min 0 min 1,7 UV-I 570 W/m 5,1 km/h (1 Bft)
05.05.2013 10:16 15,7 C 21,8 C 65 % 1023,0 hPa 0,0 l/m 2 min 0 min 1,7 UV-I 575 W/m 7,7 km/h (2 Bft)
05.05.2013 10:18 15,8 C 22,3 C 65 % 1023,0 hPa 0,0 l/m 2 min 0 min 1,7 UV-I 580 W/m 7,7 km/h (2 Bft)
05.05.2013 10:20 15,9 C 22,3 C 65 % 1023,0 hPa 0,0 l/m 2 min 0 min 1,8 UV-I 584 W/m 7,7 km/h (2 Bft)
05.05.2013 10:22 15,9 C 22,9 C 66 % 1023,0 hPa 0,0 l/m 2 min 0 min 1,8 UV-I 587 W/m 5,1 km/h (1 Bft)
05.05.2013 10:24 16,1 C 22,9 C 66 % 1023,0 hPa 0,0 l/m 2 min 0 min 1,8 UV-I 589 W/m 12,9 km/h (3 Bft)
05.05.2013 10:26 16,2 C 23,4 C 65 % 1023,1 hPa 0,0 l/m 2 min 0 min 1,9 UV-I 599 W/m 15,4 km/h (3 Bft)
05.05.2013 10:28 16,3 C 22,9 C 65 % 1023,2 hPa 0,0 l/m 2 min 0 min 1,9 UV-I 598 W/m 10,3 km/h (2 Bft)
05.05.2013 10:30 16,3 C 24,0 C 64 % 1023,0 hPa 0,0 l/m 2 min 0 min 2,0 UV-I 608 W/m 7,7 km/h (2 Bft)
05.05.2013 10:32 16,4 C 23,4 C 64 % 1023,1 hPa 0,0 l/m 2 min 0 min 2,0 UV-I 601 W/m 10,3 km/h (2 Bft)
05.05.2013 10:34 16,4 C 22,3 C 63 % 1023,1 hPa 0,0 l/m 2 min 0 min 2,1 UV-I 612 W/m 12,9 km/h (3 Bft)
05.05.2013 10:36 16,4 C 21,8 C 64 % 1023,0 hPa 0,0 l/m 2 min 0 min 2,1 UV-I 615 W/m 18,0 km/h (3 Bft)
05.05.2013 10:38 16,5 C 21,8 C 64 % 1023,1 hPa 0,0 l/m 2 min 0 min 2,1 UV-I 622 W/m 5,1 km/h (1 Bft)
05.05.2013 10:40 16,5 C 24,0 C 63 % 1023,1 hPa 0,0 l/m 2 min 0 min 2,2 UV-I 633 W/m 0,0 km/h (0 Bft)
05.05.2013 10:42 16,6 C 22,9 C 63 % 1023,1 hPa 0,0 l/m 2 min 0 min 2,2 UV-I 626 W/m 10,3 km/h (2 Bft)
05.05.2013 10:44 16,6 C 22,3 C 62 % 1023,1 hPa 0,0 l/m 2 min 0 min 2,2 UV-I 633 W/m 20,6 km/h (4 Bft)
05.05.2013 10:46 16,7 C 23,4 C 63 % 1023,0 hPa 0,0 l/m 2 min 0 min 2,3 UV-I 631 W/m 7,7 km/h (2 Bft)
05.05.2013 10:48 16,8 C 24,6 C 63 % 1023,1 hPa 0,0 l/m 2 min 0 min 2,3 UV-I 636 W/m 7,7 km/h (2 Bft)
05.05.2013 10:50 16,8 C 25,1 C 62 % 1023,1 hPa 0,0 l/m 2 min 0 min 2,3 UV-I 645 W/m 2,6 km/h (1 Bft)
05.05.2013 10:52 16,9 C 24,6 C 63 % 1023,0 hPa 0,0 l/m 2 min 0 min 2,4 UV-I 654 W/m 2,6 km/h (1 Bft)
05.05.2013 10:54 17,0 C 23,4 C 63 % 1023,0 hPa 0,0 l/m 2 min 0 min 2,5 UV-I 657 W/m 10,3 km/h (2 Bft)
05.05.2013 10:56 17,1 C 24,6 C 63 % 1023,0 hPa 0,0 l/m 2 min 0 min 2,5 UV-I 654 W/m 20,6 km/h (4 Bft)
05.05.2013 10:58 17,2 C 24,6 C 62 % 1023,0 hPa 0,0 l/m 2 min 0 min 2,5 UV-I 664 W/m 7,7 km/h (2 Bft)
05.05.2013 11:00 17,2 C 24,6 C 61 % 1023,1 hPa 0,0 l/m 2 min 0 min 2,5 UV-I 661 W/m 10,3 km/h (2 Bft)
05.05.2013 11:02 17,3 C 24,0 C 61 % 1023,1 hPa 0,0 l/m 2 min 0 min 2,6 UV-I 675 W/m 10,3 km/h (2 Bft)
05.05.2013 11:04 17,3 C 22,3 C 60 % 1023,0 hPa 0,0 l/m 2 min 0 min 1,3 UV-I 689 W/m 12,9 km/h (3 Bft)
05.05.2013 11:06 17,2 C 21,8 C 60 % 1023,0 hPa 0,0 l/m 2 min 0 min 2,7 UV-I 707 W/m 5,1 km/h (1 Bft)
05.05.2013 11:08 17,3 C 21,8 C 60 % 1023,0 hPa 0,0 l/m 2 min 0 min 2,8 UV-I 719 W/m 2,6 km/h (1 Bft)
05.05.2013 11:10 17,3 C 22,3 C 61 % 1023,0 hPa 0,0 l/m 2 min 0 min 2,8 UV-I 696 W/m 0,0 km/h (0 Bft)
05.05.2013 11:12 17,3 C 22,9 C 61 % 1023,0 hPa 0,0 l/m 2 min 0 min 2,8 UV-I 689 W/m 0,0 km/h (0 Bft)
05.05.2013 11:14 17,4 C 24,6 C 63 % 1023,0 hPa 0,0 l/m 2 min 0 min 2,9 UV-I 705 W/m 2,6 km/h (1 Bft)
05.05.2013 11:16 17,4 C 24,0 C 58 % 1022,9 hPa 0,0 l/m 2 min 0 min 2,8 UV-I 703 W/m 10,3 km/h (2 Bft)
05.05.2013 11:18 17,6 C 24,0 C 58 % 1023,0 hPa 0,0 l/m 2 min 0 min 2,9 UV-I 708 W/m 0,0 km/h (0 Bft)
05.05.2013 11:20 17,6 C 24,0 C 58 % 1022,9 hPa 0,0 l/m 2 min 0 min 2,9 UV-I 707 W/m 5,1 km/h (1 Bft)
05.05.2013 11:22 17,7 C 24,0 C 58 % 1023,0 hPa 0,0 l/m 2 min 0 min 3,0 UV-I 705 W/m 10,3 km/h (2 Bft)
05.05.2013 11:24 17,8 C 21,8 C 58 % 1023,0 hPa 0,0 l/m 2 min 0 min 3,0 UV-I 710 W/m 7,7 km/h (2 Bft)
05.05.2013 11:26 17,7 C 21,2 C 56 % 1023,0 hPa 0,0 l/m 2 min 0 min 3,1 UV-I 722 W/m 10,3 km/h (2 Bft)
05.05.2013 11:28 17,7 C 20,7 C 58 % 1023,1 hPa 0,0 l/m 2 min 0 min 3,1 UV-I 712 W/m 7,7 km/h (2 Bft)
05.05.2013 11:30 17,7 C 20,1 C 57 % 1023,1 hPa 0,0 l/m 2 min 0 min 3,1 UV-I 717 W/m 15,4 km/h (3 Bft)
05.05.2013 11:32 17,3 C 18,4 C 56 % 1023,1 hPa 0,0 l/m 2 min 0 min 3,2 UV-I 735 W/m 10,3 km/h (2 Bft)
05.05.2013 11:34 17,2 C 18,4 C 57 % 1023,0 hPa 0,0 l/m 2 min 0 min 3,2 UV-I 742 W/m 2,6 km/h (1 Bft)
05.05.2013 11:36 17,3 C 19,0 C 57 % 1023,1 hPa 0,0 l/m 2 min 0 min 3,2 UV-I 745 W/m 10,3 km/h (2 Bft)
05.05.2013 11:38 17,2 C 19,0 C 59 % 1023,0 hPa 0,0 l/m 2 min 0 min 3,2 UV-I 733 W/m 10,3 km/h (2 Bft)
05.05.2013 11:40 17,4 C 19,6 C 57 % 1023,1 hPa 0,0 l/m 2 min 0 min 3,3 UV-I 742 W/m 23,2 km/h (4 Bft)
05.05.2013 11:42 17,3 C 20,7 C 58 % 1023,1 hPa 0,0 l/m 2 min 0 min 3,3 UV-I 728 W/m 12,9 km/h (3 Bft)
05.05.2013 11:44 17,3 C 22,3 C 56 % 1023,1 hPa 0,0 l/m 2 min 0 min 2,7 UV-I 756 W/m 10,3 km/h (2 Bft)
05.05.2013 11:46 17,6 C 23,4 C 57 % 1023,1 hPa 0,0 l/m 2 min 0 min 3,3 UV-I 754 W/m 12,9 km/h (3 Bft)
05.05.2013 11:48 17,6 C 23,4 C 55 % 1023,1 hPa 0,0 l/m 2 min 0 min 3,4 UV-I 765 W/m 15,4 km/h (3 Bft)
05.05.2013 11:50 17,4 C 23,4 C 55 % 1023,1 hPa 0,0 l/m 2 min 0 min 3,5 UV-I 765 W/m 10,3 km/h (2 Bft)
05.05.2013 11:52 17,3 C 22,9 C 55 % 1023,1 hPa 0,0 l/m 2 min 0 min 2,1 UV-I 766 W/m 10,3 km/h (2 Bft)
05.05.2013 11:54 17,3 C 22,9 C 56 % 1023,0 hPa 0,0 l/m 2 min 0 min 3,6 UV-I 766 W/m 18,0 km/h (3 Bft)
05.05.2013 11:56 17,4 C 23,4 C 55 % 1023,0 hPa 0,0 l/m 2 min 0 min 3,6 UV-I 789 W/m 15,4 km/h (3 Bft)
05.05.2013 11:58 17,5 C 24,0 C 57 % 1022,9 hPa 0,0 l/m 2 min 0 min 3,6 UV-I 779 W/m 15,4 km/h (3 Bft)
05.05.2013 12:00 17,7 C 24,6 C 56 % 1023,0 hPa 0,0 l/m 2 min 0 min 3,6 UV-I 775 W/m 25,7 km/h (4 Bft)
05.05.2013 12:02 18,0 C 25,1 C 55 % 1023,0 hPa 0,0 l/m 2 min 0 min 3,7 UV-I 779 W/m 23,2 km/h (4 Bft)
05.05.2013 12:04 18,2 C 25,1 C 54 % 1022,9 hPa 0,0 l/m 2 min 0 min 3,7 UV-I 784 W/m 12,9 km/h (3 Bft)
05.05.2013 12:06 18,1 C 25,1 C 54 % 1022,9 hPa 0,0 l/m 2 min 0 min 3,7 UV-I 795 W/m 0,0 km/h (0 Bft)
05.05.2013 12:08 18,1 C 25,1 C 56 % 1022,9 hPa 0,0 l/m 2 min 0 min 3,6 UV-I 770 W/m 2,6 km/h (1 Bft)
05.05.2013 12:10 18,1 C 25,7 C 54 % 1023,0 hPa 0,0 l/m 2 min 0 min 3,8 UV-I 807 W/m 10,3 km/h (2 Bft)
05.05.2013 12:12 18,1 C 25,7 C 53 % 1022,9 hPa 0,0 l/m 2 min 0 min 3,9 UV-I 803 W/m 7,7 km/h (2 Bft)
05.05.2013 12:14 18,1 C 26,2 C 53 % 1023,0 hPa 0,0 l/m 2 min 0 min 3,9 UV-I 795 W/m 10,3 km/h (2 Bft)
05.05.2013 12:16 18,0 C 26,2 C 53 % 1022,9 hPa 0,0 l/m 2 min 0 min 3,9 UV-I 796 W/m 10,3 km/h (2 Bft)
05.05.2013 12:18 18,0 C 24,6 C 52 % 1023,0 hPa 0,0 l/m 2 min 0 min 3,9 UV-I 786 W/m 12,9 km/h (3 Bft)
05.05.2013 12:20 17,9 C 25,1 C 53 % 1022,9 hPa 0,0 l/m 2 min 0 min 3,8 UV-I 791 W/m 18,0 km/h (3 Bft)
05.05.2013 12:22 18,2 C 25,7 C 55 % 1023,0 hPa 0,0 l/m 2 min 0 min 3,9 UV-I 786 W/m 15,4 km/h (3 Bft)
05.05.2013 12:24 18,3 C 26,2 C 51 % 1022,9 hPa 0,0 l/m 2 min 0 min 3,8 UV-I 763 W/m 18,0 km/h (3 Bft)
05.05.2013 12:26 18,3 C 25,7 C 53 % 1022,9 hPa 0,0 l/m 2 min 0 min 4,0 UV-I 809 W/m 12,9 km/h (3 Bft)
05.05.2013 12:28 18,2 C 25,7 C 50 % 1022,9 hPa 0,0 l/m 2 min 0 min 4,1 UV-I 823 W/m 10,3 km/h (2 Bft)
05.05.2013 12:30 18,2 C 26,2 C 53 % 1022,8 hPa 0,0 l/m 2 min 0 min 4,1 UV-I 824 W/m 5,1 km/h (1 Bft)
05.05.2013 12:32 18,3 C 26,8 C 53 % 1022,8 hPa 0,0 l/m 2 min 0 min 4,2 UV-I 826 W/m 2,6 km/h (1 Bft)
05.05.2013 12:34 18,2 C 25,7 C 50 % 1022,8 hPa 0,0 l/m 2 min 0 min 4,1 UV-I 823 W/m 10,3 km/h (2 Bft)
05.05.2013 12:36 18,4 C 26,2 C 51 % 1022,8 hPa 0,0 l/m 2 min 0 min 4,1 UV-I 814 W/m 12,9 km/h (3 Bft)
05.05.2013 12:38 18,3 C 25,7 C 52 % 1022,8 hPa 0,0 l/m 2 min 0 min 4,1 UV-I 786 W/m 10,3 km/h (2 Bft)
05.05.2013 12:40 18,4 C 26,2 C 52 % 1022,8 hPa 0,0 l/m 2 min 0 min 4,1 UV-I 807 W/m 7,7 km/h (2 Bft)
05.05.2013 12:42 18,3 C 26,2 C 51 % 1022,8 hPa 0,0 l/m 2 min 0 min 4,1 UV-I 803 W/m 10,3 km/h (2 Bft)
05.05.2013 12:44 18,3 C 26,2 C 53 % 1022,7 hPa 0,0 l/m 2 min 0 min 4,1 UV-I 844 W/m 15,4 km/h (3 Bft)
05.05.2013 12:46 18,6 C 25,7 C 52 % 1022,7 hPa 0,0 l/m 2 min 0 min 3,8 UV-I 810 W/m 12,9 km/h (3 Bft)
05.05.2013 12:48 18,7 C 25,7 C 51 % 1022,7 hPa 0,0 l/m 2 min 0 min 3,4 UV-I 773 W/m 7,7 km/h (2 Bft)
05.05.2013 12:50 18,8 C 25,7 C 50 % 1022,8 hPa 0,0 l/m 2 min 0 min 3,0 UV-I 752 W/m 15,4 km/h (3 Bft)
05.05.2013 12:52 18,6 C 26,2 C 48 % 1022,7 hPa 0,0 l/m 2 min 0 min 2,6 UV-I 803 W/m 5,1 km/h (1 Bft)
05.05.2013 12:54 18,6 C 26,8 C 51 % 1022,7 hPa 0,0 l/m 2 min 0 min 2,3 UV-I 800 W/m 2,6 km/h (1 Bft)
05.05.2013 12:56 18,8 C 26,8 C 50 % 1022,7 hPa 0,0 l/m 2 min 0 min 2,0 UV-I 803 W/m 2,6 km/h (1 Bft)
05.05.2013 12:58 19,0 C 26,8 C 50 % 1022,7 hPa 0,0 l/m 2 min 0 min 1,8 UV-I 805 W/m 2,6 km/h (1 Bft)
05.05.2013 13:00 18,9 C 26,8 C 49 % 1022,7 hPa 0,0 l/m 2 min 0 min 1,8 UV-I 800 W/m 2,6 km/h (1 Bft)
05.05.2013 13:02 18,8 C 26,8 C 50 % 1022,7 hPa 0,0 l/m 2 min 0 min 1,7 UV-I 780 W/m 10,3 km/h (2 Bft)
05.05.2013 13:04 18,6 C 25,7 C 48 % 1022,7 hPa 0,0 l/m 2 min 0 min 1,7 UV-I 805 W/m 0,0 km/h (0 Bft)
05.05.2013 13:06 18,4 C 26,2 C 51 % 1022,7 hPa 0,0 l/m 2 min 0 min 1,7 UV-I 793 W/m 0,0 km/h (0 Bft)
05.05.2013 13:08 18,6 C 26,2 C 50 % 1022,6 hPa 0,0 l/m 2 min 0 min 1,7 UV-I 777 W/m 10,3 km/h (2 Bft)
05.05.2013 13:10 18,8 C 26,2 C 49 % 1022,8 hPa 0,0 l/m 2 min 0 min 1,7 UV-I 788 W/m 10,3 km/h (2 Bft)
05.05.2013 13:12 19,0 C 26,2 C 50 % 1022,8 hPa 0,0 l/m 2 min 0 min 1,7 UV-I 786 W/m 15,4 km/h (3 Bft)
05.05.2013 13:14 18,9 C 25,1 C 46 % 1022,8 hPa 0,0 l/m 2 min 0 min 1,7 UV-I 803 W/m 12,9 km/h (3 Bft)
05.05.2013 13:16 18,9 C 25,1 C 48 % 1022,8 hPa 0,0 l/m 2 min 0 min 1,7 UV-I 807 W/m 18,0 km/h (3 Bft)
05.05.2013 13:18 18,8 C 25,1 C 49 % 1022,7 hPa 0,0 l/m 2 min 0 min 1,7 UV-I 819 W/m 5,1 km/h (1 Bft)
05.05.2013 13:20 18,8 C 25,1 C 46 % 1022,7 hPa 0,0 l/m 2 min 0 min 1,7 UV-I 814 W/m 10,3 km/h (2 Bft)
05.05.2013 13:22 18,8 C 25,7 C 47 % 1022,7 hPa 0,0 l/m 2 min 0 min 1,7 UV-I 816 W/m 7,7 km/h (2 Bft)
05.05.2013 13:24 18,9 C 25,7 C 48 % 1022,7 hPa 0,0 l/m 2 min 0 min 1,7 UV-I 821 W/m 10,3 km/h (2 Bft)
05.05.2013 13:26 18,9 C 25,7 C 46 % 1022,7 hPa 0,0 l/m 2 min 0 min 1,8 UV-I 821 W/m 15,4 km/h (3 Bft)
05.05.2013 13:28 18,9 C 25,1 C 46 % 1022,7 hPa 0,0 l/m 2 min 0 min 1,7 UV-I 824 W/m 12,9 km/h (3 Bft)
05.05.2013 13:30 18,8 C 25,1 C 46 % 1022,7 hPa 0,0 l/m 2 min 0 min 1,7 UV-I 821 W/m 5,1 km/h (1 Bft)
05.05.2013 13:32 18,7 C 25,1 C 47 % 1022,7 hPa 0,0 l/m 2 min 0 min 1,8 UV-I 821 W/m 12,9 km/h (3 Bft)
05.05.2013 13:34 18,9 C 25,7 C 49 % 1022,6 hPa 0,0 l/m 2 min 0 min 1,9 UV-I 810 W/m 12,9 km/h (3 Bft)
05.05.2013 13:36 19,2 C 26,8 C 45 % 1022,6 hPa 0,0 l/m 2 min 0 min 2,2 UV-I 823 W/m 2,6 km/h (1 Bft)
05.05.2013 13:38 19,4 C 25,7 C 47 % 1022,6 hPa 0,0 l/m 2 min 0 min 2,5 UV-I 817 W/m 18,0 km/h (3 Bft)
05.05.2013 13:40 19,8 C 26,2 C 47 % 1022,6 hPa 0,0 l/m 2 min 0 min 3,0 UV-I 821 W/m 18,0 km/h (3 Bft)
05.05.2013 13:42 19,6 C 24,0 C 45 % 1022,6 hPa 0,0 l/m 2 min 0 min 3,4 UV-I 821 W/m 15,4 km/h (3 Bft)
05.05.2013 13:44 19,6 C 23,4 C 45 % 1022,6 hPa 0,0 l/m 2 min 0 min 4,0 UV-I 821 W/m 7,7 km/h (2 Bft)
05.05.2013 13:46 20,0 C 22,3 C 45 % 1022,6 hPa 0,0 l/m 2 min 0 min 4,2 UV-I 816 W/m 2,6 km/h (1 Bft)
05.05.2013 13:48 19,9 C 21,8 C 44 % 1022,6 hPa 0,0 l/m 2 min 0 min 4,4 UV-I 821 W/m 2,6 km/h (1 Bft)
05.05.2013 13:50 19,8 C 21,8 C 42 % 1022,6 hPa 0,0 l/m 2 min 0 min 4,5 UV-I 823 W/m 2,6 km/h (1 Bft)
05.05.2013 13:52 19,8 C 21,8 C 45 % 1022,5 hPa 0,0 l/m 2 min 0 min 4,4 UV-I 817 W/m 18,0 km/h (3 Bft)
05.05.2013 13:54 20,1 C 21,8 C 42 % 1022,6 hPa 0,0 l/m 2 min 0 min 4,4 UV-I 816 W/m 18,0 km/h (3 Bft)
05.05.2013 13:56 20,1 C 21,2 C 42 % 1022,5 hPa 0,0 l/m 2 min 0 min 4,4 UV-I 816 W/m 15,4 km/h (3 Bft)
05.05.2013 13:58 20,0 C 21,2 C 42 % 1022,6 hPa 0,0 l/m 2 min 0 min 4,4 UV-I 816 W/m 10,3 km/h (2 Bft)
05.05.2013 14:00 19,8 C 20,7 C 44 % 1022,5 hPa 0,0 l/m 2 min 0 min 4,4 UV-I 816 W/m 18,0 km/h (3 Bft)
05.05.2013 14:02 19,9 C 20,7 C 45 % 1022,6 hPa 0,0 l/m 2 min 0 min 4,4 UV-I 810 W/m 5,1 km/h (1 Bft)
05.05.2013 14:04 20,2 C 20,7 C 44 % 1022,6 hPa 0,0 l/m 2 min 0 min 4,4 UV-I 810 W/m 2,6 km/h (1 Bft)
05.05.2013 14:06 20,1 C 20,7 C 44 % 1022,6 hPa 0,0 l/m 2 min 0 min 4,3 UV-I 800 W/m 10,3 km/h (2 Bft)
05.05.2013 14:08 19,8 C 20,1 C 47 % 1022,5 hPa 0,0 l/m 2 min 0 min 4,3 UV-I 802 W/m 7,7 km/h (2 Bft)
05.05.2013 14:10 19,6 C 20,1 C 46 % 1022,5 hPa 0,0 l/m 2 min 0 min 4,3 UV-I 802 W/m 0,0 km/h (0 Bft)
05.05.2013 14:12 19,7 C 20,1 C 47 % 1022,5 hPa 0,0 l/m 2 min 0 min 4,3 UV-I 809 W/m 0,0 km/h (0 Bft)
05.05.2013 14:14 19,6 C 20,1 C 46 % 1022,4 hPa 0,0 l/m 2 min 0 min 4,3 UV-I 810 W/m 0,0 km/h (0 Bft)
05.05.2013 14:16 20,1 C 20,1 C 44 % 1022,4 hPa 0,0 l/m 2 min 0 min 4,4 UV-I 816 W/m 2,6 km/h (1 Bft)
05.05.2013 14:18 19,9 C 20,1 C 43 % 1022,5 hPa 0,0 l/m 2 min 0 min 4,3 UV-I 809 W/m 12,9 km/h (3 Bft)
05.05.2013 14:20 19,8 C 20,7 C 43 % 1022,4 hPa 0,0 l/m 2 min 0 min 4,3 UV-I 807 W/m 10,3 km/h (2 Bft)
05.05.2013 14:22 19,9 C 20,7 C 45 % 1022,4 hPa 0,0 l/m 2 min 0 min 4,3 UV-I 805 W/m 7,7 km/h (2 Bft)
05.05.2013 14:24 20,1 C 20,1 C 47 % 1022,4 hPa 0,0 l/m 2 min 0 min 4,2 UV-I 802 W/m 2,6 km/h (1 Bft)
05.05.2013 14:26 20,1 C 20,1 C 43 % 1022,4 hPa 0,0 l/m 2 min 0 min 4,2 UV-I 803 W/m 10,3 km/h (2 Bft)
05.05.2013 14:28 19,9 C 20,1 C 43 % 1022,4 hPa 0,0 l/m 2 min 0 min 4,2 UV-I 802 W/m 12,9 km/h (3 Bft)
05.05.2013 14:30 19,8 C 20,1 C 45 % 1022,3 hPa 0,0 l/m 2 min 0 min 4,2 UV-I 802 W/m 5,1 km/h (1 Bft)
05.05.2013 14:32 19,7 C 19,6 C 44 % 1022,2 hPa 0,0 l/m 2 min 0 min 4,2 UV-I 798 W/m 0,0 km/h (0 Bft)
05.05.2013 14:34 19,8 C 20,1 C 45 % 1022,2 hPa 0,0 l/m 2 min 0 min 4,2 UV-I 796 W/m 12,9 km/h (3 Bft)
05.05.2013 14:36 20,1 C 20,1 C 47 % 1022,2 hPa 0,0 l/m 2 min 0 min 4,1 UV-I 789 W/m 7,7 km/h (2 Bft)
05.05.2013 14:38 20,6 C 20,7 C 46 % 1022,2 hPa 0,0 l/m 2 min 0 min 4,1 UV-I 786 W/m 18,0 km/h (3 Bft)
05.05.2013 14:40 20,8 C 21,2 C 44 % 1022,2 hPa 0,0 l/m 2 min 0 min 4,0 UV-I 782 W/m 2,6 km/h (1 Bft)
05.05.2013 14:42 20,8 C 20,7 C 43 % 1022,3 hPa 0,0 l/m 2 min 0 min 4,0 UV-I 780 W/m 7,7 km/h (2 Bft)
05.05.2013 14:44 20,8 C 21,2 C 44 % 1022,4 hPa 0,0 l/m 2 min 0 min 4,0 UV-I 784 W/m 18,0 km/h (3 Bft)
05.05.2013 14:46 20,8 C 20,7 C 44 % 1022,3 hPa 0,0 l/m 2 min 0 min 4,0 UV-I 782 W/m 10,3 km/h (2 Bft)
05.05.2013 14:48 20,9 C 20,7 C 44 % 1022,2 hPa 0,0 l/m 2 min 0 min 4,0 UV-I 777 W/m 5,1 km/h (1 Bft)
05.05.2013 14:50 20,6 C 20,1 C 46 % 1022,2 hPa 0,0 l/m 2 min 0 min 4,0 UV-I 779 W/m 2,6 km/h (1 Bft)
05.05.2013 14:52 20,6 C 20,1 C 43 % 1022,2 hPa 0,0 l/m 2 min 0 min 4,0 UV-I 777 W/m 10,3 km/h (2 Bft)
05.05.2013 14:54 20,3 C 20,1 C 44 % 1022,2 hPa 0,0 l/m 2 min 0 min 4,0 UV-I 779 W/m 10,3 km/h (2 Bft)
05.05.2013 14:56 20,1 C 20,1 C 45 % 1022,1 hPa 0,0 l/m 2 min 0 min 4,0 UV-I 777 W/m 15,4 km/h (3 Bft)
05.05.2013 14:58 20,2 C 20,1 C 44 % 1022,2 hPa 0,0 l/m 2 min 0 min 3,9 UV-I 775 W/m 12,9 km/h (3 Bft)
05.05.2013 15:00 19,8 C 19,6 C 43 % 1022,1 hPa 0,0 l/m 2 min 0 min 3,9 UV-I 770 W/m 10,3 km/h (2 Bft)
05.05.2013 15:02 19,9 C 20,1 C 47 % 1022,1 hPa 0,0 l/m 2 min 0 min 3,8 UV-I 768 W/m 5,1 km/h (1 Bft)
05.05.2013 15:04 20,2 C 20,1 C 45 % 1022,1 hPa 0,0 l/m 2 min 0 min 3,8 UV-I 763 W/m 10,3 km/h (2 Bft)
05.05.2013 15:06 20,2 C 20,1 C 43 % 1022,0 hPa 0,0 l/m 2 min 0 min 3,8 UV-I 763 W/m 10,3 km/h (2 Bft)
05.05.2013 15:08 19,9 C 19,6 C 42 % 1022,0 hPa 0,0 l/m 2 min 0 min 3,7 UV-I 759 W/m 10,3 km/h (2 Bft)
05.05.2013 15:10 19,8 C 20,1 C 43 % 1021,9 hPa 0,0 l/m 2 min 0 min 3,7 UV-I 758 W/m 10,3 km/h (2 Bft)
05.05.2013 15:12 20,3 C 20,1 C 45 % 1022,0 hPa 0,0 l/m 2 min 0 min 3,7 UV-I 758 W/m 12,9 km/h (3 Bft)
05.05.2013 15:14 20,4 C 20,7 C 44 % 1022,0 hPa 0,0 l/m 2 min 0 min 3,6 UV-I 752 W/m 15,4 km/h (3 Bft)
05.05.2013 15:16 20,3 C 20,7 C 43 % 1022,0 hPa 0,0 l/m 2 min 0 min 3,6 UV-I 749 W/m 12,9 km/h (3 Bft)
05.05.2013 15:18 20,7 C 21,2 C 44 % 1022,0 hPa 0,0 l/m 2 min 0 min 3,5 UV-I 747 W/m 10,3 km/h (2 Bft)
05.05.2013 15:20 20,9 C 21,2 C 43 % 1022,0 hPa 0,0 l/m 2 min 0 min 3,5 UV-I 742 W/m 5,1 km/h (1 Bft)
05.05.2013 15:22 20,8 C 21,2 C 42 % 1022,0 hPa 0,0 l/m 2 min 0 min 3,5 UV-I 731 W/m 12,9 km/h (3 Bft)
05.05.2013 15:24 20,8 C 20,7 C 41 % 1022,0 hPa 0,0 l/m 2 min 0 min 3,4 UV-I 729 W/m 10,3 km/h (2 Bft)
05.05.2013 15:26 20,6 C 20,1 C 41 % 1022,0 hPa 0,0 l/m 2 min 0 min 3,4 UV-I 712 W/m 12,9 km/h (3 Bft)
05.05.2013 15:28 20,6 C 20,1 C 45 % 1022,0 hPa 0,0 l/m 2 min 0 min 3,3 UV-I 710 W/m 2,6 km/h (1 Bft)
05.05.2013 15:30 20,8 C 20,7 C 44 % 1021,9 hPa 0,0 l/m 2 min 0 min 3,3 UV-I 707 W/m 10,3 km/h (2 Bft)
05.05.2013 15:32 21,0 C 20,7 C 43 % 1022,0 hPa 0,0 l/m 2 min 0 min 3,4 UV-I 728 W/m 2,6 km/h (1 Bft)
05.05.2013 15:34 20,8 C 20,7 C 42 % 1022,0 hPa 0,0 l/m 2 min 0 min 3,3 UV-I 726 W/m 2,6 km/h (1 Bft)
05.05.2013 15:36 20,7 C 20,7 C 43 % 1022,0 hPa 0,0 l/m 2 min 0 min 3,3 UV-I 726 W/m 10,3 km/h (2 Bft)
05.05.2013 15:38 20,8 C 20,7 C 44 % 1022,0 hPa 0,0 l/m 2 min 0 min 3,3 UV-I 728 W/m 0,0 km/h (0 Bft)
05.05.2013 15:40 21,1 C 20,7 C 45 % 1022,0 hPa 0,0 l/m 2 min 0 min 3,2 UV-I 722 W/m 18,0 km/h (3 Bft)
05.05.2013 15:42 21,2 C 21,2 C 43 % 1021,9 hPa 0,0 l/m 2 min 0 min 3,2 UV-I 712 W/m 18,0 km/h (3 Bft)
05.05.2013 15:44 21,1 C 20,7 C 43 % 1021,8 hPa 0,0 l/m 2 min 0 min 3,2 UV-I 710 W/m 10,3 km/h (2 Bft)
05.05.2013 15:46 21,1 C 20,7 C 43 % 1021,9 hPa 0,0 l/m 2 min 0 min 3,1 UV-I 715 W/m 10,3 km/h (2 Bft)
05.05.2013 15:48 20,9 C 20,7 C 42 % 1021,9 hPa 0,0 l/m 2 min 0 min 3,1 UV-I 714 W/m 10,3 km/h (2 Bft)
05.05.2013 15:50 21,1 C 20,7 C 44 % 1021,9 hPa 0,0 l/m 2 min 0 min 3,0 UV-I 694 W/m 7,7 km/h (2 Bft)
05.05.2013 15:52 20,7 C 20,1 C 41 % 1021,8 hPa 0,0 l/m 2 min 0 min 2,9 UV-I 650 W/m 0,0 km/h (0 Bft)
05.05.2013 15:54 20,7 C 20,1 C 41 % 1021,8 hPa 0,0 l/m 2 min 0 min 2,5 UV-I 626 W/m 2,6 km/h (1 Bft)
05.05.2013 15:56 20,7 C 20,1 C 43 % 1021,8 hPa 0,0 l/m 2 min 0 min 2,5 UV-I 541 W/m 0,0 km/h (0 Bft)
05.05.2013 15:58 20,8 C 20,7 C 43 % 1021,8 hPa 0,0 l/m 2 min 0 min 2,7 UV-I 594 W/m 2,6 km/h (1 Bft)
05.05.2013 16:00 20,8 C 20,7 C 41 % 1021,8 hPa 0,0 l/m 2 min 0 min 2,8 UV-I 645 W/m 0,0 km/h (0 Bft)
05.05.2013 16:02 20,4 C 20,1 C 42 % 1021,8 hPa 0,0 l/m 2 min 0 min 2,9 UV-I 684 W/m 10,3 km/h (2 Bft)
05.05.2013 16:04 20,5 C 21,2 C 42 % 1021,7 hPa 0,0 l/m 2 min 0 min 2,8 UV-I 684 W/m 7,7 km/h (2 Bft)
05.05.2013 16:06 20,8 C 21,2 C 43 % 1021,6 hPa 0,0 l/m 2 min 0 min 2,8 UV-I 680 W/m 2,6 km/h (1 Bft)
05.05.2013 16:08 21,1 C 21,8 C 43 % 1021,7 hPa 0,0 l/m 2 min 0 min 2,8 UV-I 679 W/m 10,3 km/h (2 Bft)
05.05.2013 16:10 20,9 C 22,3 C 43 % 1021,7 hPa 0,0 l/m 2 min 0 min 2,7 UV-I 680 W/m 10,3 km/h (2 Bft)
05.05.2013 16:12 21,0 C 23,4 C 41 % 1021,7 hPa 0,0 l/m 2 min 0 min 2,7 UV-I 679 W/m 2,6 km/h (1 Bft)
05.05.2013 16:14 20,9 C 24,0 C 45 % 1021,7 hPa 0,0 l/m 2 min 0 min 2,6 UV-I 661 W/m 5,1 km/h (1 Bft)
05.05.2013 16:16 20,8 C 23,4 C 45 % 1021,6 hPa 0,0 l/m 2 min 0 min 2,6 UV-I 659 W/m 10,3 km/h (2 Bft)
05.05.2013 16:18 20,7 C 22,9 C 43 % 1021,6 hPa 0,0 l/m 2 min 0 min 2,6 UV-I 643 W/m 10,3 km/h (2 Bft)
05.05.2013 16:20 20,7 C 21,8 C 44 % 1021,7 hPa 0,0 l/m 2 min 0 min 2,5 UV-I 622 W/m 12,9 km/h (3 Bft)
05.05.2013 16:22 20,7 C 21,8 C 44 % 1021,6 hPa 0,0 l/m 2 min 0 min 2,4 UV-I 615 W/m 10,3 km/h (2 Bft)
05.05.2013 16:24 21,0 C 21,2 C 44 % 1021,6 hPa 0,0 l/m 2 min 0 min 2,4 UV-I 617 W/m 2,6 km/h (1 Bft)
05.05.2013 16:26 20,9 C 21,2 C 43 % 1021,5 hPa 0,0 l/m 2 min 0 min 2,4 UV-I 642 W/m 18,0 km/h (3 Bft)
05.05.2013 16:28 20,9 C 21,2 C 43 % 1021,5 hPa 0,0 l/m 2 min 0 min 2,2 UV-I 575 W/m 10,3 km/h (2 Bft)
05.05.2013 16:30 20,8 C 21,2 C 44 % 1021,6 hPa 0,0 l/m 2 min 0 min 2,2 UV-I 534 W/m 12,9 km/h (3 Bft)
05.05.2013 16:32 20,8 C 21,2 C 43 % 1021,5 hPa 0,0 l/m 2 min 0 min 2,2 UV-I 642 W/m 7,7 km/h (2 Bft)
05.05.2013 16:34 20,6 C 20,7 C 43 % 1021,5 hPa 0,0 l/m 2 min 0 min 2,3 UV-I 633 W/m 2,6 km/h (1 Bft)
05.05.2013 16:36 20,7 C 20,7 C 45 % 1021,5 hPa 0,0 l/m 2 min 0 min 2,2 UV-I 629 W/m 10,3 km/h (2 Bft)
05.05.2013 16:38 20,8 C 20,7 C 44 % 1021,5 hPa 0,0 l/m 2 min 0 min 2,1 UV-I 582 W/m 10,3 km/h (2 Bft)
05.05.2013 16:40 20,7 C 20,7 C 45 % 1021,4 hPa 0,0 l/m 2 min 0 min 2,0 UV-I 578 W/m 10,3 km/h (2 Bft)
05.05.2013 16:42 20,7 C 20,1 C 44 % 1021,4 hPa 0,0 l/m 2 min 0 min 2,0 UV-I 575 W/m 2,6 km/h (1 Bft)
05.05.2013 16:44 20,7 C 20,1 C 46 % 1021,3 hPa 0,0 l/m 2 min 0 min 2,1 UV-I 605 W/m 5,1 km/h (1 Bft)
05.05.2013 16:46 21,0 C 20,7 C 46 % 1021,4 hPa 0,0 l/m 2 min 0 min 1,9 UV-I 543 W/m 2,6 km/h (1 Bft)
05.05.2013 16:48 21,1 C 20,7 C 45 % 1021,3 hPa 0,0 l/m 2 min 0 min 1,8 UV-I 559 W/m 7,7 km/h (2 Bft)
05.05.2013 16:50 21,2 C 20,7 C 45 % 1021,4 hPa 0,0 l/m 2 min 0 min 1,9 UV-I 587 W/m 5,1 km/h (1 Bft)
05.05.2013 16:52 21,2 C 20,7 C 45 % 1021,4 hPa 0,0 l/m 2 min 0 min 1,9 UV-I 552 W/m 0,0 km/h (0 Bft)
05.05.2013 16:54 21,1 C 20,1 C 45 % 1021,5 hPa 0,0 l/m 2 min 0 min 1,7 UV-I 496 W/m 10,3 km/h (2 Bft)
05.05.2013 16:56 20,9 C 20,1 C 44 % 1021,4 hPa 0,0 l/m 2 min 0 min 1,7 UV-I 492 W/m 10,3 km/h (2 Bft)
05.05.2013 16:58 20,9 C 20,1 C 45 % 1021,4 hPa 0,0 l/m 2 min 0 min 1,7 UV-I 510 W/m 5,1 km/h (1 Bft)
05.05.2013 17:00 20,9 C 19,6 C 45 % 1021,5 hPa 0,0 l/m 2 min 0 min 1,7 UV-I 515 W/m 2,6 km/h (1 Bft)
05.05.2013 17:02 20,8 C 19,6 C 45 % 1021,4 hPa 0,0 l/m 2 min 0 min 1,6 UV-I 566 W/m 2,6 km/h (1 Bft)
05.05.2013 17:04 20,8 C 20,1 C 45 % 1021,4 hPa 0,0 l/m 2 min 0 min 1,6 UV-I 501 W/m 10,3 km/h (2 Bft)
05.05.2013 17:06 20,8 C 19,6 C 46 % 1021,4 hPa 0,0 l/m 2 min 0 min 1,6 UV-I 490 W/m 0,0 km/h (0 Bft)
05.05.2013 17:08 20,8 C 19,6 C 46 % 1021,4 hPa 0,0 l/m 2 min 0 min 1,7 UV-I 555 W/m 2,6 km/h (1 Bft)
05.05.2013 17:10 20,9 C 20,1 C 45 % 1021,4 hPa 0,0 l/m 2 min 0 min 1,6 UV-I 520 W/m 2,6 km/h (1 Bft)
05.05.2013 17:12 21,1 C 19,6 C 45 % 1021,3 hPa 0,0 l/m 2 min 0 min 1,6 UV-I 541 W/m 2,6 km/h (1 Bft)
05.05.2013 17:14 21,0 C 19,6 C 44 % 1021,3 hPa 0,0 l/m 2 min 0 min 1,6 UV-I 534 W/m 7,7 km/h (2 Bft)
05.05.2013 17:16 20,9 C 19,6 C 45 % 1021,4 hPa 0,0 l/m 2 min 0 min 1,5 UV-I 510 W/m 5,1 km/h (1 Bft)
05.05.2013 17:18 20,9 C 19,6 C 45 % 1021,4 hPa 0,0 l/m 2 min 0 min 1,3 UV-I 403 W/m 2,6 km/h (1 Bft)
05.05.2013 17:20 20,8 C 19,6 C 46 % 1021,4 hPa 0,0 l/m 2 min 0 min 1,4 UV-I 408 W/m 10,3 km/h (2 Bft)
05.05.2013 17:22 20,7 C 19,6 C 45 % 1021,4 hPa 0,0 l/m 2 min 0 min 1,5 UV-I 519 W/m 2,6 km/h (1 Bft)
05.05.2013 17:24 20,6 C 19,6 C 45 % 1021,4 hPa 0,0 l/m 2 min 0 min 1,4 UV-I 515 W/m 2,6 km/h (1 Bft)
05.05.2013 17:26 20,8 C 19,6 C 45 % 1021,4 hPa 0,0 l/m 2 min 0 min 1,4 UV-I 506 W/m 0,0 km/h (0 Bft)
05.05.2013 17:28 20,8 C 19,6 C 44 % 1021,3 hPa 0,0 l/m 2 min 0 min 1,4 UV-I 510 W/m 2,6 km/h (1 Bft)
05.05.2013 17:30 20,8 C 19,6 C 47 % 1021,3 hPa 0,0 l/m 2 min 0 min 1,4 UV-I 508 W/m 2,6 km/h (1 Bft)
05.05.2013 17:32 21,1 C 19,6 C 47 % 1021,3 hPa 0,0 l/m 2 min 0 min 1,3 UV-I 506 W/m 0,0 km/h (0 Bft)
05.05.2013 17:34 21,3 C 19,6 C 45 % 1021,3 hPa 0,0 l/m 2 min 0 min 1,3 UV-I 499 W/m 2,6 km/h (1 Bft)
05.05.2013 17:36 20,9 C 19,6 C 44 % 1021,3 hPa 0,0 l/m 2 min 0 min 1,3 UV-I 499 W/m 2,6 km/h (1 Bft)
05.05.2013 17:38 20,8 C 20,1 C 44 % 1021,2 hPa 0,0 l/m 2 min 0 min 1,3 UV-I 485 W/m 10,3 km/h (2 Bft)
05.05.2013 17:40 20,6 C 20,1 C 46 % 1021,3 hPa 0,0 l/m 2 min 0 min 1,2 UV-I 469 W/m 2,6 km/h (1 Bft)
05.05.2013 17:42 20,7 C 20,1 C 45 % 1021,3 hPa 0,0 l/m 2 min 0 min 1,2 UV-I 483 W/m 10,3 km/h (2 Bft)
05.05.2013 17:44 20,7 C 20,1 C 47 % 1021,3 hPa 0,0 l/m 2 min 0 min 1,1 UV-I 461 W/m 2,6 km/h (1 Bft)
05.05.2013 17:46 20,8 C 20,1 C 46 % 1021,3 hPa 0,0 l/m 2 min 0 min 1,1 UV-I 480 W/m 2,6 km/h (1 Bft)
05.05.2013 17:48 20,8 C 20,1 C 45 % 1021,3 hPa 0,0 l/m 2 min 0 min 1,0 UV-I 383 W/m 10,3 km/h (2 Bft)
05.05.2013 17:50 20,7 C 19,6 C 46 % 1021,2 hPa 0,0 l/m 2 min 0 min 0,9 UV-I 403 W/m 2,6 km/h (1 Bft)
05.05.2013 17:52 20,5 C 19,6 C 47 % 1021,2 hPa 0,0 l/m 2 min 0 min 0,9 UV-I 406 W/m 10,3 km/h (2 Bft)
05.05.2013 17:54 20,5 C 19,6 C 47 % 1021,3 hPa 0,0 l/m 2 min 0 min 0,9 UV-I 399 W/m 2,6 km/h (1 Bft)
05.05.2013 17:56 20,6 C 19,6 C 47 % 1021,2 hPa 0,0 l/m 2 min 0 min 0,8 UV-I 418 W/m 2,6 km/h (1 Bft)
05.05.2013 17:58 20,6 C 19,6 C 47 % 1021,3 hPa 0,0 l/m 2 min 0 min 0,7 UV-I 360 W/m 7,7 km/h (2 Bft)
05.05.2013 18:00 20,7 C 19,6 C 47 % 1021,2 hPa 0,0 l/m 2 min 0 min 0,6 UV-I 250 W/m 0,0 km/h (0 Bft)
05.05.2013 18:02 20,6 C 19,0 C 46 % 1021,3 hPa 0,0 l/m 2 min 0 min 0,5 UV-I 248 W/m 2,6 km/h (1 Bft)
05.05.2013 18:04 20,3 C 19,0 C 45 % 1021,2 hPa 0,0 l/m 0 min 0 min 0,5 UV-I 181 W/m 2,6 km/h (1 Bft)
05.05.2013 18:06 20,0 C 18,4 C 46 % 1021,3 hPa 0,0 l/m 2 min 0 min 0,5 UV-I 255 W/m 2,6 km/h (1 Bft)
05.05.2013 18:08 19,9 C 18,4 C 47 % 1021,3 hPa 0,0 l/m 2 min 0 min 0,5 UV-I 239 W/m 2,6 km/h (1 Bft)
05.05.2013 18:10 19,7 C 18,4 C 47 % 1021,2 hPa 0,0 l/m 0 min 0 min 0,0 UV-I 221 W/m 2,6 km/h (1 Bft)
05.05.2013 18:12 19,7 C 18,4 C 48 % 1021,1 hPa 0,0 l/m 0 min 0 min 0,0 UV-I 229 W/m 0,0 km/h (0 Bft)
05.05.2013 18:14 19,6 C 18,4 C 47 % 1021,1 hPa 0,0 l/m 2 min 0 min 0,0 UV-I 279 W/m 0,0 km/h (0 Bft)
05.05.2013 18:16 19,7 C 18,4 C 48 % 1021,1 hPa 0,0 l/m 2 min 0 min 0,5 UV-I 306 W/m 0,0 km/h (0 Bft)
05.05.2013 18:18 19,8 C 18,4 C 49 % 1021,1 hPa 0,0 l/m 2 min 0 min 0,0 UV-I 345 W/m 0,0 km/h (0 Bft)
05.05.2013 18:20 20,0 C 18,4 C 47 % 1021,0 hPa 0,0 l/m 2 min 0 min 0,0 UV-I 243 W/m 0,0 km/h (0 Bft)
05.05.2013 18:22 20,0 C 18,4 C 47 % 1021,1 hPa 0,0 l/m 0 min 0 min 0,0 UV-I 188 W/m 2,6 km/h (1 Bft)
05.05.2013 18:24 19,9 C 18,4 C 47 % 1021,1 hPa 0,0 l/m 0 min 0 min 0,0 UV-I 199 W/m 0,0 km/h (0 Bft)
05.05.2013 18:26 19,9 C 18,4 C 47 % 1021,1 hPa 0,0 l/m 0 min 0 min 0,0 UV-I 105 W/m 0,0 km/h (0 Bft)
05.05.2013 18:28 20,0 C 18,4 C 46 % 1021,1 hPa 0,0 l/m 0 min 0 min 0,0 UV-I 116 W/m 2,6 km/h (1 Bft)
05.05.2013 18:30 19,9 C 18,4 C 47 % 1021,0 hPa 0,0 l/m 0 min 0 min 0,0 UV-I 155 W/m 2,6 km/h (1 Bft)
05.05.2013 18:32 19,9 C 18,4 C 48 % 1021,1 hPa 0,0 l/m 0 min 0 min 0,0 UV-I 132 W/m 2,6 km/h (1 Bft)
05.05.2013 18:34 20,0 C 18,4 C 47 % 1021,0 hPa 0,0 l/m 0 min 0 min 0,0 UV-I 141 W/m 0,0 km/h (0 Bft)
05.05.2013 18:36 20,0 C 19,0 C 47 % 1021,0 hPa 0,0 l/m 0 min 0 min 0,0 UV-I 162 W/m 0,0 km/h (0 Bft)
05.05.2013 18:38 20,1 C 19,0 C 49 % 1021,0 hPa 0,0 l/m 0 min 0 min 0,0 UV-I 121 W/m 0,0 km/h (0 Bft)
05.05.2013 18:40 20,3 C 19,0 C 47 % 1021,0 hPa 0,0 l/m 0 min 0 min 0,0 UV-I 151 W/m 12,9 km/h (3 Bft)
05.05.2013 18:42 20,3 C 19,0 C 48 % 1021,0 hPa 0,0 l/m 0 min 0 min 0,0 UV-I 174 W/m 2,6 km/h (1 Bft)
05.05.2013 18:44 20,3 C 19,0 C 47 % 1020,9 hPa 0,0 l/m 0 min 0 min 0,0 UV-I 167 W/m 0,0 km/h (0 Bft)
05.05.2013 18:46 20,4 C 19,0 C 47 % 1020,9 hPa 0,0 l/m 0 min 0 min 0,0 UV-I 141 W/m 0,0 km/h (0 Bft)
05.05.2013 18:48 20,3 C 19,0 C 47 % 1021,0 hPa 0,0 l/m 0 min 0 min 0,0 UV-I 123 W/m 0,0 km/h (0 Bft)
05.05.2013 18:50 20,2 C 19,0 C 47 % 1021,0 hPa 0,0 l/m 0 min 0 min 0,0 UV-I 128 W/m 0,0 km/h (0 Bft)
05.05.2013 18:52 20,0 C 19,0 C 47 % 1021,0 hPa 0,0 l/m 0 min 0 min 0,0 UV-I 113 W/m 0,0 km/h (0 Bft)
05.05.2013 18:54 19,9 C 19,0 C 46 % 1021,1 hPa 0,0 l/m 0 min 0 min 0,0 UV-I 107 W/m 0,0 km/h (0 Bft)
05.05.2013 18:56 19,9 C 19,0 C 47 % 1021,0 hPa 0,0 l/m 0 min 0 min 0,0 UV-I 104 W/m 0,0 km/h (0 Bft)
05.05.2013 18:58 19,9 C 19,0 C 48 % 1021,0 hPa 0,0 l/m 0 min 0 min 0,0 UV-I 100 W/m 0,0 km/h (0 Bft)
05.05.2013 19:00 19,9 C 18,4 C 48 % 1021,0 hPa 0,0 l/m 0 min 0 min 0,0 UV-I 95 W/m 0,0 km/h (0 Bft)
05.05.2013 19:02 20,1 C 18,4 C 47 % 1021,1 hPa 0,0 l/m 0 min 0 min 0,0 UV-I 76 W/m 0,0 km/h (0 Bft)
05.05.2013 19:04 20,0 C 18,4 C 47 % 1021,1 hPa 0,0 l/m 0 min 0 min 0,0 UV-I 86 W/m 0,0 km/h (0 Bft)
05.05.2013 19:06 20,0 C 18,4 C 49 % 1021,1 hPa 0,0 l/m 0 min 0 min 0,0 UV-I 81 W/m 0,0 km/h (0 Bft)
05.05.2013 19:08 20,0 C 18,4 C 47 % 1021,0 hPa 0,0 l/m 0 min 0 min 0,0 UV-I 79 W/m 0,0 km/h (0 Bft)
05.05.2013 19:10 19,9 C 18,4 C 47 % 1021,0 hPa 0,0 l/m 0 min 0 min 0,0 UV-I 76 W/m 0,0 km/h (0 Bft)
05.05.2013 19:12 19,9 C 18,4 C 47 % 1021,0 hPa 0,0 l/m 0 min 0 min 0,0 UV-I 74 W/m 0,0 km/h (0 Bft)
05.05.2013 19:14 19,8 C 18,4 C 48 % 1021,0 hPa 0,0 l/m 0 min 0 min 0,0 UV-I 77 W/m 0,0 km/h (0 Bft)
05.05.2013 19:16 19,8 C 18,4 C 48 % 1021,0 hPa 0,0 l/m 0 min 0 min 0,0 UV-I 74 W/m 0,0 km/h (0 Bft)
05.05.2013 19:18 19,8 C 17,9 C 50 % 1021,0 hPa 0,0 l/m 0 min 0 min 0,0 UV-I 69 W/m 0,0 km/h (0 Bft)
05.05.2013 19:20 19,8 C 17,9 C 49 % 1021,0 hPa 0,0 l/m 0 min 0 min 0,0 UV-I 69 W/m 0,0 km/h (0 Bft)
05.05.2013 19:22 19,8 C 17,9 C 50 % 1020,9 hPa 0,0 l/m 0 min 0 min 0,0 UV-I 69 W/m 0,0 km/h (0 Bft)
05.05.2013 19:24 19,8 C 17,9 C 49 % 1020,9 hPa 0,0 l/m 0 min 0 min 0,0 UV-I 67 W/m 0,0 km/h (0 Bft)
05.05.2013 19:26 19,7 C 17,9 C 48 % 1021,0 hPa 0,0 l/m 0 min 0 min 0,0 UV-I 65 W/m 0,0 km/h (0 Bft)
05.05.2013 19:28 19,7 C 17,9 C 49 % 1021,0 hPa 0,0 l/m 0 min 0 min 0,0 UV-I 63 W/m 2,6 km/h (1 Bft)
05.05.2013 19:30 19,7 C 17,9 C 48 % 1021,0 hPa 0,0 l/m 0 min 0 min 0,0 UV-I 62 W/m 0,0 km/h (0 Bft)
05.05.2013 19:32 19,6 C 17,9 C 48 % 1021,0 hPa 0,0 l/m 0 min 0 min 0,0 UV-I 62 W/m 10,3 km/h (2 Bft)
05.05.2013 19:34 19,6 C 17,9 C 48 % 1021,0 hPa 0,0 l/m 0 min 0 min 0,0 UV-I 60 W/m 7,7 km/h (2 Bft)
05.05.2013 19:36 19,6 C 17,9 C 48 % 1020,9 hPa 0,0 l/m 0 min 0 min 0,0 UV-I 60 W/m 0,0 km/h (0 Bft)
05.05.2013 19:38 19,6 C 17,9 C 48 % 1020,9 hPa 0,0 l/m 0 min 0 min 0,0 UV-I 60 W/m 0,0 km/h (0 Bft)
05.05.2013 19:40 19,7 C 17,9 C 48 % 1020,9 hPa 0,0 l/m 0 min 0 min 0,0 UV-I 60 W/m 2,6 km/h (1 Bft)
05.05.2013 19:42 19,6 C 18,4 C 48 % 1020,9 hPa 0,0 l/m 0 min 0 min 0,0 UV-I 58 W/m 2,6 km/h (1 Bft)
05.05.2013 19:44 19,6 C 18,4 C 47 % 1020,9 hPa 0,0 l/m 0 min 0 min 0,0 UV-I 56 W/m 0,0 km/h (0 Bft)
05.05.2013 19:46 19,6 C 18,4 C 47 % 1021,0 hPa 0,0 l/m 0 min 0 min 0,0 UV-I 54 W/m 2,6 km/h (1 Bft)
05.05.2013 19:48 19,6 C 18,4 C 48 % 1020,9 hPa 0,0 l/m 0 min 0 min 0,0 UV-I 54 W/m 0,0 km/h (0 Bft)
05.05.2013 19:50 19,6 C 17,9 C 48 % 1021,0 hPa 0,0 l/m 0 min 0 min 0,0 UV-I 56 W/m 0,0 km/h (0 Bft)
05.05.2013 19:52 19,6 C 17,9 C 48 % 1021,0 hPa 0,0 l/m 0 min 0 min 0,0 UV-I 56 W/m 0,0 km/h (0 Bft)
05.05.2013 19:54 19,5 C 17,9 C 48 % 1021,0 hPa 0,0 l/m 0 min 0 min 0,0 UV-I 56 W/m 0,0 km/h (0 Bft)
05.05.2013 19:56 19,4 C 17,9 C 48 % 1021,0 hPa 0,0 l/m 0 min 0 min 0,0 UV-I 54 W/m 0,0 km/h (0 Bft)
05.05.2013 19:58 19,4 C 17,9 C 48 % 1021,0 hPa 0,0 l/m 0 min 0 min 0,0 UV-I 54 W/m 0,0 km/h (0 Bft)
05.05.2013 20:00 19,4 C 17,9 C 47 % 1020,9 hPa 0,0 l/m 0 min 0 min 0,0 UV-I 54 W/m 0,0 km/h (0 Bft)
05.05.2013 20:02 19,4 C 17,9 C 47 % 1021,0 hPa 0,0 l/m 0 min 0 min 0,0 UV-I 53 W/m 0,0 km/h (0 Bft)
05.05.2013 20:04 19,4 C 17,9 C 48 % 1021,0 hPa 0,0 l/m 0 min 0 min 0,0 UV-I 51 W/m 0,0 km/h (0 Bft)
05.05.2013 20:06 19,4 C 17,9 C 48 % 1020,9 hPa 0,0 l/m 0 min 0 min 0,0 UV-I 49 W/m 0,0 km/h (0 Bft)
05.05.2013 20:08 19,4 C 17,9 C 48 % 1020,9 hPa 0,0 l/m 0 min 0 min 0,0 UV-I 47 W/m 0,0 km/h (0 Bft)
05.05.2013 20:10 19,4 C 17,9 C 48 % 1020,9 hPa 0,0 l/m 0 min 0 min 0,0 UV-I 46 W/m 0,0 km/h (0 Bft)
05.05.2013 20:12 19,4 C 17,9 C 48 % 1021,0 hPa 0,0 l/m 0 min 0 min 0,0 UV-I 42 W/m 0,0 km/h (0 Bft)
05.05.2013 20:14 19,3 C 17,9 C 48 % 1021,0 hPa 0,0 l/m 0 min 0 min 0,0 UV-I 40 W/m 0,0 km/h (0 Bft)
05.05.2013 20:16 19,3 C 17,9 C 49 % 1021,0 hPa 0,0 l/m 0 min 0 min 0,0 UV-I 35 W/m 2,6 km/h (1 Bft)
05.05.2013 20:18 19,3 C 17,9 C 50 % 1021,0 hPa 0,0 l/m 0 min 0 min 0,0 UV-I 32 W/m 2,6 km/h (1 Bft)
05.05.2013 20:20 19,2 C 17,9 C 50 % 1021,0 hPa 0,0 l/m 0 min 0 min 0,0 UV-I 30 W/m 0,0 km/h (0 Bft)
05.05.2013 20:22 19,1 C 17,3 C 49 % 1021,0 hPa 0,0 l/m 0 min 0 min 0,0 UV-I 26 W/m 7,7 km/h (2 Bft)
05.05.2013 20:24 19,0 C 17,3 C 48 % 1021,0 hPa 0,0 l/m 0 min 0 min 0,0 UV-I 25 W/m 5,1 km/h (1 Bft)
05.05.2013 20:26 18,9 C 17,3 C 48 % 1021,0 hPa 0,0 l/m 0 min 0 min 0,0 UV-I 23 W/m 7,7 km/h (2 Bft)
05.05.2013 20:28 18,9 C 17,3 C 49 % 1021,0 hPa 0,0 l/m 0 min 0 min 0,0 UV-I 21 W/m 5,1 km/h (1 Bft)
05.05.2013 20:30 18,9 C 17,3 C 49 % 1021,0 hPa 0,0 l/m 0 min 0 min 0,0 UV-I 19 W/m 0,0 km/h (0 Bft)
05.05.2013 20:32 18,8 C 17,3 C 49 % 1020,9 hPa 0,0 l/m 0 min 0 min 0,0 UV-I 18 W/m 0,0 km/h (0 Bft)
05.05.2013 20:34 18,7 C 16,8 C 50 % 1020,9 hPa 0,0 l/m 0 min 0 min 0,0 UV-I 16 W/m 0,0 km/h (0 Bft)
05.05.2013 20:36 18,6 C 16,8 C 51 % 1020,9 hPa 0,0 l/m 0 min 0 min 0,0 UV-I 14 W/m 0,0 km/h (0 Bft)
05.05.2013 20:38 18,5 C 16,2 C 51 % 1020,9 hPa 0,0 l/m 0 min 0 min 0,0 UV-I 14 W/m 0,0 km/h (0 Bft)
05.05.2013 20:40 18,3 C 16,2 C 54 % 1021,0 hPa 0,0 l/m 0 min 0 min 0,0 UV-I 12 W/m 0,0 km/h (0 Bft)
05.05.2013 20:42 18,2 C 16,2 C 51 % 1021,0 hPa 0,0 l/m 0 min 0 min 0,0 UV-I 12 W/m 0,0 km/h (0 Bft)
05.05.2013 20:44 18,2 C 15,7 C 51 % 1021,0 hPa 0,0 l/m 0 min 0 min 0,0 UV-I 12 W/m 0,0 km/h (0 Bft)
05.05.2013 20:46 18,2 C 15,7 C 53 % 1021,0 hPa 0,0 l/m 0 min 0 min 0,0 UV-I 11 W/m 0,0 km/h (0 Bft)
05.05.2013 20:48 17,9 C 15,1 C 54 % 1021,0 hPa 0,0 l/m 0 min 0 min 0,0 UV-I 11 W/m 0,0 km/h (0 Bft)
05.05.2013 20:50 17,8 C 15,1 C 55 % 1021,1 hPa 0,0 l/m 0 min 0 min 0,0 UV-I 9 W/m 0,0 km/h (0 Bft)
05.05.2013 20:52 17,6 C 14,6 C 56 % 1021,1 hPa 0,0 l/m 0 min 0 min 0,0 UV-I 9 W/m 0,0 km/h (0 Bft)
05.05.2013 20:54 17,4 C 14,6 C 56 % 1021,1 hPa 0,0 l/m 0 min 0 min 0,0 UV-I 9 W/m 0,0 km/h (0 Bft)
05.05.2013 20:56 17,2 C 14,6 C 56 % 1021,2 hPa 0,0 l/m 0 min 0 min 0,0 UV-I 7 W/m 0,0 km/h (0 Bft)
05.05.2013 20:58 17,1 C 14,6 C 57 % 1021,1 hPa 0,0 l/m 0 min 0 min 0,0 UV-I 7 W/m 0,0 km/h (0 Bft)
05.05.2013 21:00 16,9 C 14,0 C 58 % 1021,1 hPa 0,0 l/m 0 min 0 min 0,0 UV-I 5 W/m 0,0 km/h (0 Bft)
05.05.2013 21:02 16,8 C 14,0 C 57 % 1021,1 hPa 0,0 l/m 0 min 0 min 0,0 UV-I 5 W/m 0,0 km/h (0 Bft)
05.05.2013 21:04 16,7 C 14,0 C 57 % 1021,2 hPa 0,0 l/m 0 min 0 min 0,0 UV-I 5 W/m 0,0 km/h (0 Bft)
05.05.2013 21:06 16,6 C 14,0 C 58 % 1021,1 hPa 0,0 l/m 0 min 0 min 0,0 UV-I 0 W/m 0,0 km/h (0 Bft)
05.05.2013 21:08 16,5 C 14,0 C 59 % 1021,2 hPa 0,0 l/m 0 min 0 min 0,0 UV-I 0 W/m 0,0 km/h (0 Bft)
05.05.2013 21:10 16,4 C 13,4 C 60 % 1021,2 hPa 0,0 l/m 0 min 0 min 0,0 UV-I 0 W/m 0,0 km/h (0 Bft)
05.05.2013 21:12 16,3 C 13,4 C 60 % 1021,3 hPa 0,0 l/m 0 min 0 min 0,0 UV-I 0 W/m 0,0 km/h (0 Bft)
05.05.2013 21:14 16,3 C 13,4 C 60 % 1021,2 hPa 0,0 l/m 0 min 0 min 0,0 UV-I 0 W/m 0,0 km/h (0 Bft)
05.05.2013 21:16 16,2 C 13,4 C 60 % 1021,2 hPa 0,0 l/m 0 min 0 min 0,0 UV-I 0 W/m 0,0 km/h (0 Bft)
05.05.2013 21:18 16,2 C 13,4 C 60 % 1021,3 hPa 0,0 l/m 0 min 0 min 0,0 UV-I 0 W/m 0,0 km/h (0 Bft)
05.05.2013 21:20 16,2 C 12,9 C 60 % 1021,3 hPa 0,0 l/m 0 min 0 min 0,0 UV-I 0 W/m 0,0 km/h (0 Bft)
05.05.2013 21:22 16,2 C 12,9 C 59 % 1021,2 hPa 0,0 l/m 0 min 0 min 0,0 UV-I 0 W/m 0,0 km/h (0 Bft)
05.05.2013 21:24 16,2 C 12,9 C 59 % 1021,3 hPa 0,0 l/m 0 min 0 min 0,0 UV-I 0 W/m 0,0 km/h (0 Bft)
05.05.2013 21:26 16,1 C 12,9 C 59 % 1021,4 hPa 0,0 l/m 0 min 0 min 0,0 UV-I 0 W/m 0,0 km/h (0 Bft)
05.05.2013 21:28 16,1 C 12,9 C 59 % 1021,4 hPa 0,0 l/m 0 min 0 min 0,0 UV-I 0 W/m 0,0 km/h (0 Bft)
05.05.2013 21:30 16,1 C 12,9 C 59 % 1021,4 hPa 0,0 l/m 0 min 0 min 0,0 UV-I 0 W/m 0,0 km/h (0 Bft)
05.05.2013 21:32 16,1 C 12,3 C 59 % 1021,4 hPa 0,0 l/m 0 min 0 min 0,0 UV-I 0 W/m 0,0 km/h (0 Bft)
05.05.2013 21:34 16,0 C 12,3 C 59 % 1021,4 hPa 0,0 l/m 0 min 0 min 0,0 UV-I 0 W/m 0,0 km/h (0 Bft)
05.05.2013 21:36 15,9 C 12,3 C 60 % 1021,4 hPa 0,0 l/m 0 min 0 min 0,0 UV-I 0 W/m 0,0 km/h (0 Bft)
05.05.2013 21:38 15,9 C 12,3 C 60 % 1021,4 hPa 0,0 l/m 0 min 0 min 0,0 UV-I 0 W/m 0,0 km/h (0 Bft)
05.05.2013 21:40 15,9 C 12,3 C 60 % 1021,4 hPa 0,0 l/m 0 min 0 min 0,0 UV-I 0 W/m 0,0 km/h (0 Bft)
05.05.2013 21:42 15,9 C 12,3 C 60 % 1021,5 hPa 0,0 l/m 0 min 0 min 0,0 UV-I 0 W/m 0,0 km/h (0 Bft)
05.05.2013 21:44 15,8 C 12,3 C 61 % 1021,4 hPa 0,0 l/m 0 min 0 min 0,0 UV-I 0 W/m 0,0 km/h (0 Bft)
05.05.2013 21:46 15,8 C 12,3 C 61 % 1021,5 hPa 0,0 l/m 0 min 0 min 0,0 UV-I 0 W/m 0,0 km/h (0 Bft)
05.05.2013 21:48 15,8 C 11,8 C 61 % 1021,5 hPa 0,0 l/m 0 min 0 min 0,0 UV-I 0 W/m 0,0 km/h (0 Bft)
05.05.2013 21:50 15,7 C 11,8 C 61 % 1021,4 hPa 0,0 l/m 0 min 0 min 0,0 UV-I 0 W/m 0,0 km/h (0 Bft)
05.05.2013 21:52 15,7 C 11,8 C 61 % 1021,4 hPa 0,0 l/m 0 min 0 min 0,0 UV-I 0 W/m 0,0 km/h (0 Bft)
05.05.2013 21:54 15,6 C 11,8 C 61 % 1021,4 hPa 0,0 l/m 0 min 0 min 0,0 UV-I 0 W/m 0,0 km/h (0 Bft)
05.05.2013 21:56 15,6 C 11,8 C 61 % 1021,5 hPa 0,0 l/m 0 min 0 min 0,0 UV-I 0 W/m 0,0 km/h (0 Bft)
05.05.2013 21:58 15,4 C 11,8 C 62 % 1021,5 hPa 0,0 l/m 0 min 0 min 0,0 UV-I 0 W/m 0,0 km/h (0 Bft)
05.05.2013 22:00 15,4 C 11,8 C 62 % 1021,5 hPa 0,0 l/m 0 min 0 min 0,0 UV-I 0 W/m 0,0 km/h (0 Bft)
05.05.2013 22:02 15,3 C 11,8 C 62 % 1021,5 hPa 0,0 l/m 0 min 0 min 0,0 UV-I 0 W/m 0,0 km/h (0 Bft)
05.05.2013 22:04 15,3 C 11,8 C 62 % 1021,5 hPa 0,0 l/m 0 min 0 min 0,0 UV-I 0 W/m 0,0 km/h (0 Bft)
05.05.2013 22:06 15,2 C 11,8 C 62 % 1021,5 hPa 0,0 l/m 0 min 0 min 0,0 UV-I 0 W/m 0,0 km/h (0 Bft)
05.05.2013 22:08 15,2 C 11,2 C 62 % 1021,5 hPa 0,0 l/m 0 min 0 min 0,0 UV-I 0 W/m 0,0 km/h (0 Bft)
05.05.2013 22:10 15,1 C 11,2 C 62 % 1021,4 hPa 0,0 l/m 0 min 0 min 0,0 UV-I 0 W/m 0,0 km/h (0 Bft)
05.05.2013 22:12 15,1 C 11,2 C 62 % 1021,5 hPa 0,0 l/m 0 min 0 min 0,0 UV-I 0 W/m 0,0 km/h (0 Bft)
05.05.2013 22:14 15,0 C 11,2 C 63 % 1021,5 hPa 0,0 l/m 0 min 0 min 0,0 UV-I 0 W/m 0,0 km/h (0 Bft)
05.05.2013 22:16 14,9 C 11,2 C 63 % 1021,5 hPa 0,0 l/m 0 min 0 min 0,0 UV-I 0 W/m 0,0 km/h (0 Bft)
05.05.2013 22:18 14,8 C 11,2 C 64 % 1021,5 hPa 0,0 l/m 0 min 0 min 0,0 UV-I 0 W/m 0,0 km/h (0 Bft)
05.05.2013 22:20 14,8 C 11,2 C 64 % 1021,5 hPa 0,0 l/m 0 min 0 min 0,0 UV-I 0 W/m 0,0 km/h (0 Bft)
05.05.2013 22:22 14,7 C 11,2 C 65 % 1021,5 hPa 0,0 l/m 0 min 0 min 0,0 UV-I 0 W/m 0,0 km/h (0 Bft)
05.05.2013 22:24 14,6 C 11,2 C 64 % 1021,5 hPa 0,0 l/m 0 min 0 min 0,0 UV-I 0 W/m 0,0 km/h (0 Bft)
05.05.2013 22:26 14,6 C 11,2 C 64 % 1021,5 hPa 0,0 l/m 0 min 0 min 0,0 UV-I 0 W/m 0,0 km/h (0 Bft)
05.05.2013 22:28 14,5 C 11,2 C 65 % 1021,6 hPa 0,0 l/m 0 min 0 min 0,0 UV-I 0 W/m 0,0 km/h (0 Bft)
05.05.2013 22:30 14,4 C 10,7 C 65 % 1021,5 hPa 0,0 l/m 0 min 0 min 0,0 UV-I 0 W/m 0,0 km/h (0 Bft)
05.05.2013 22:32 14,4 C 10,7 C 65 % 1021,5 hPa 0,0 l/m 0 min 0 min 0,0 UV-I 0 W/m 0,0 km/h (0 Bft)
05.05.2013 22:34 14,3 C 10,7 C 65 % 1021,6 hPa 0,0 l/m 0 min 0 min 0,0 UV-I 0 W/m 0,0 km/h (0 Bft)
05.05.2013 22:36 14,3 C 10,7 C 66 % 1021,6 hPa 0,0 l/m 0 min 0 min 0,0 UV-I 0 W/m 0,0 km/h (0 Bft)
05.05.2013 22:38 14,2 C 10,7 C 66 % 1021,6 hPa 0,0 l/m 0 min 0 min 0,0 UV-I 0 W/m 0,0 km/h (0 Bft)
05.05.2013 22:40 14,1 C 10,7 C 66 % 1021,6 hPa 0,0 l/m 0 min 0 min 0,0 UV-I 0 W/m 0,0 km/h (0 Bft)
05.05.2013 22:42 14,0 C 10,7 C 66 % 1021,6 hPa 0,0 l/m 0 min 0 min 0,0 UV-I 0 W/m 0,0 km/h (0 Bft)
05.05.2013 22:44 14,0 C 10,7 C 67 % 1021,6 hPa 0,0 l/m 0 min 0 min 0,0 UV-I 0 W/m 0,0 km/h (0 Bft)
05.05.2013 22:46 14,0 C 10,7 C 67 % 1021,6 hPa 0,0 l/m 0 min 0 min 0,0 UV-I 0 W/m 0,0 km/h (0 Bft)
05.05.2013 22:48 14,0 C 10,7 C 67 % 1021,7 hPa 0,0 l/m 0 min 0 min 0,0 UV-I 0 W/m 0,0 km/h (0 Bft)
05.05.2013 22:50 13,9 C 10,7 C 67 % 1021,7 hPa 0,0 l/m 0 min 0 min 0,0 UV-I 0 W/m 0,0 km/h (0 Bft)
05.05.2013 22:52 13,8 C 10,7 C 67 % 1021,6 hPa 0,0 l/m 0 min 0 min 0,0 UV-I 0 W/m 0,0 km/h (0 Bft)
05.05.2013 22:54 13,8 C 10,7 C 68 % 1021,6 hPa 0,0 l/m 0 min 0 min 0,0 UV-I 0 W/m 0,0 km/h (0 Bft)
05.05.2013 22:56 13,7 C 10,7 C 68 % 1021,6 hPa 0,0 l/m 0 min 0 min 0,0 UV-I 0 W/m 0,0 km/h (0 Bft)
05.05.2013 22:58 13,7 C 10,7 C 68 % 1021,6 hPa 0,0 l/m 0 min 0 min 0,0 UV-I 0 W/m 0,0 km/h (0 Bft)
05.05.2013 23:00 13,6 C 10,1 C 68 % 1021,6 hPa 0,0 l/m 0 min 0 min 0,0 UV-I 0 W/m 0,0 km/h (0 Bft)
05.05.2013 23:02 13,6 C 10,1 C 68 % 1021,7 hPa 0,0 l/m 0 min 0 min 0,0 UV-I 0 W/m 0,0 km/h (0 Bft)
05.05.2013 23:04 13,5 C 10,1 C 68 % 1021,7 hPa 0,0 l/m 0 min 0 min 0,0 UV-I 0 W/m 0,0 km/h (0 Bft)
05.05.2013 23:06 13,4 C 10,1 C 68 % 1021,7 hPa 0,0 l/m 0 min 0 min 0,0 UV-I 0 W/m 0,0 km/h (0 Bft)
05.05.2013 23:08 13,4 C 10,1 C 68 % 1021,7 hPa 0,0 l/m 0 min 0 min 0,0 UV-I 0 W/m 0,0 km/h (0 Bft)
05.05.2013 23:10 13,3 C 10,1 C 68 % 1021,7 hPa 0,0 l/m 0 min 0 min 0,0 UV-I 0 W/m 0,0 km/h (0 Bft)
05.05.2013 23:12 13,3 C 10,1 C 68 % 1021,7 hPa 0,0 l/m 0 min 0 min 0,0 UV-I 0 W/m 0,0 km/h (0 Bft)
05.05.2013 23:14 13,2 C 10,1 C 69 % 1021,7 hPa 0,0 l/m 0 min 0 min 0,0 UV-I 0 W/m 0,0 km/h (0 Bft)
05.05.2013 23:16 13,2 C 10,1 C 69 % 1021,7 hPa 0,0 l/m 0 min 0 min 0,0 UV-I 0 W/m 0,0 km/h (0 Bft)
05.05.2013 23:18 13,1 C 10,1 C 69 % 1021,7 hPa 0,0 l/m 0 min 0 min 0,0 UV-I 0 W/m 0,0 km/h (0 Bft)
05.05.2013 23:20 13,1 C 10,1 C 69 % 1021,8 hPa 0,0 l/m 0 min 0 min 0,0 UV-I 0 W/m 0,0 km/h (0 Bft)
05.05.2013 23:22 13,0 C 10,1 C 70 % 1021,8 hPa 0,0 l/m 0 min 0 min 0,0 UV-I 0 W/m 0,0 km/h (0 Bft)
05.05.2013 23:24 12,9 C 10,1 C 70 % 1021,8 hPa 0,0 l/m 0 min 0 min 0,0 UV-I 0 W/m 0,0 km/h (0 Bft)
05.05.2013 23:26 12,8 C 10,1 C 71 % 1021,8 hPa 0,0 l/m 0 min 0 min 0,0 UV-I 0 W/m 0,0 km/h (0 Bft)
05.05.2013 23:28 12,8 C 10,1 C 71 % 1021,8 hPa 0,0 l/m 0 min 0 min 0,0 UV-I 0 W/m 0,0 km/h (0 Bft)
05.05.2013 23:30 12,7 C 10,1 C 71 % 1021,8 hPa 0,0 l/m 0 min 0 min 0,0 UV-I 0 W/m 0,0 km/h (0 Bft)
05.05.2013 23:32 12,7 C 10,1 C 71 % 1021,8 hPa 0,0 l/m 0 min 0 min 0,0 UV-I 0 W/m 0,0 km/h (0 Bft)
05.05.2013 23:34 12,6 C 9,6 C 71 % 1021,8 hPa 0,0 l/m 0 min 0 min 0,0 UV-I 0 W/m 0,0 km/h (0 Bft)
05.05.2013 23:36 12,6 C 9,6 C 71 % 1021,8 hPa 0,0 l/m 0 min 0 min 0,0 UV-I 0 W/m 0,0 km/h (0 Bft)
05.05.2013 23:38 12,5 C 9,6 C 72 % 1021,8 hPa 0,0 l/m 0 min 0 min 0,0 UV-I 0 W/m 0,0 km/h (0 Bft)
05.05.2013 23:40 12,5 C 9,6 C 72 % 1021,8 hPa 0,0 l/m 0 min 0 min 0,0 UV-I 0 W/m 0,0 km/h (0 Bft)
05.05.2013 23:42 12,4 C 9,6 C 72 % 1021,8 hPa 0,0 l/m 0 min 0 min 0,0 UV-I 0 W/m 0,0 km/h (0 Bft)
05.05.2013 23:44 12,4 C 9,6 C 72 % 1021,7 hPa 0,0 l/m 0 min 0 min 0,0 UV-I 0 W/m 0,0 km/h (0 Bft)
05.05.2013 23:46 12,3 C 9,6 C 72 % 1021,8 hPa 0,0 l/m 0 min 0 min 0,0 UV-I 0 W/m 0,0 km/h (0 Bft)
05.05.2013 23:48 12,3 C 9,6 C 72 % 1021,7 hPa 0,0 l/m 0 min 0 min 0,0 UV-I 0 W/m 0,0 km/h (0 Bft)
05.05.2013 23:50 12,3 C 9,6 C 73 % 1021,8 hPa 0,0 l/m 0 min 0 min 0,0 UV-I 0 W/m 0,0 km/h (0 Bft)
05.05.2013 23:52 12,2 C 9,6 C 73 % 1021,8 hPa 0,0 l/m 0 min 0 min 0,0 UV-I 0 W/m 0,0 km/h (0 Bft)
05.05.2013 23:54 12,2 C 9,0 C 73 % 1021,7 hPa 0,0 l/m 0 min 0 min 0,0 UV-I 0 W/m 0,0 km/h (0 Bft)
05.05.2013 23:56 12,1 C 9,0 C 73 % 1021,7 hPa 0,0 l/m 0 min 0 min 0,0 UV-I 0 W/m 0,0 km/h (0 Bft)
05.05.2013 23:58 12,1 C 9,0 C 73 % 1021,8 hPa 0,0 l/m 0 min 0 min 0,0 UV-I 0 W/m 0,0 km/h (0 Bft)
_ Min-Zeit 06:22 05:26 15:24 18:44 - - - - - 00:00
Minimum _ 6,8 C 5,1 C 41 % 1020,9 hPa - - - - - 0,0 km/h (0 Bft)
_ Max-Zeit 17:34 12:32 07:42 10:28 00:00 08:16 00:00 13:50 12:44 12:00
Maximum _ 21,3 C 26,8 C 96 % 1023,2 hPa 0,0 l/m 2 min 0 min 4,5 UV-I 844 W/m 25,7 km/h
S-SO (4 Bft)
Durchschnitt _ 14,5 C 14,4 C 66 % 1021,9 hPa #0,0 l/m #10:00 h #0 min. 2,6 UV-I 434 W/m 3,4 km/h (1 Bft)
© 2013 W. Hausmann